| time (UTC) | temp C | wind direction | speed KPH | gust KPH | rain 1hr cm | rain 24hr cm | rain mn cm | humidity % | barometer mb |
| 20260507105045 | 17 | 90 | 9.7 | 17.7 | 0.00 | 0.30 | 0.00 | 60 | 1011.4 |
| 20260507104945 | 17 | 86 | 9.7 | 17.7 | 0.00 | 0.30 | 0.00 | 60 | 1011.5 |
| 20260507104845 | 17 | 85 | 9.7 | 17.7 | 0.00 | 0.30 | 0.00 | 60 | 1011.5 |
| 20260507104744 | 17 | 82 | 9.7 | 17.7 | 0.00 | 0.30 | 0.00 | 59 | 1011.5 |
| 20260507104645 | 17 | 83 | 9.7 | 16.1 | 0.00 | 0.30 | 0.00 | 59 | 1011.5 |
| 20260507104545 | 17 | 86 | 8.0 | 16.1 | 0.00 | 0.30 | 0.00 | 59 | 1011.5 |
| 20260507104445 | 17 | 85 | 8.0 | 16.1 | 0.00 | 0.30 | 0.00 | 59 | 1011.5 |
| 20260507104345 | 17 | 82 | 8.0 | 16.1 | 0.00 | 0.30 | 0.00 | 60 | 1011.4 |
| 20260507104245 | 17 | 81 | 8.0 | 16.1 | 0.00 | 0.30 | 0.00 | 59 | 1011.4 |
| 20260507104144 | 17 | 82 | 9.7 | 16.1 | 0.00 | 0.30 | 0.00 | 58 | 1011.5 |
| 20260507104044 | 17 | 84 | 8.0 | 16.1 | 0.00 | 0.30 | 0.00 | 59 | 1011.4 |
| 20260507103944 | 17 | 86 | 8.0 | 16.1 | 0.00 | 0.30 | 0.00 | 59 | 1011.4 |
| 20260507103846 | 17 | 89 | 8.0 | 16.1 | 0.00 | 0.30 | 0.00 | 59 | 1011.5 |
| 20260507103746 | 17 | 90 | 8.0 | 16.1 | 0.00 | 0.30 | 0.00 | 59 | 1011.5 |
| 20260507103644 | 17 | 90 | 9.7 | 16.1 | 0.00 | 0.30 | 0.00 | 58 | 1011.5 |
| 20260507103546 | 17 | 87 | 8.0 | 16.1 | 0.00 | 0.30 | 0.00 | 58 | 1011.6 |
| 20260507103446 | 17 | 87 | 8.0 | 16.1 | 0.00 | 0.30 | 0.00 | 58 | 1011.5 |
| 20260507103346 | 17 | 86 | 8.0 | 16.1 | 0.00 | 0.30 | 0.00 | 57 | 1011.5 |
| 20260507103245 | 17 | 83 | 6.4 | 16.1 | 0.00 | 0.30 | 0.00 | 57 | 1011.4 |
| 20260507103144 | 17 | 80 | 6.4 | 16.1 | 0.00 | 0.30 | 0.00 | 58 | 1011.6 |
| 20260507103044 | 17 | 83 | 8.0 | 16.1 | 0.00 | 0.30 | 0.00 | 58 | 1011.6 |
| 20260507102944 | 17 | 83 | 8.0 | 16.1 | 0.00 | 0.30 | 0.00 | 57 | 1011.5 |
| 20260507102846 | 17 | 81 | 8.0 | 16.1 | 0.00 | 0.30 | 0.00 | 58 | 1011.5 |
| 20260507102746 | 17 | 78 | 8.0 | 16.1 | 0.00 | 0.30 | 0.00 | 58 | 1011.6 |
| 20260507102644 | 17 | 76 | 8.0 | 16.1 | 0.00 | 0.30 | 0.00 | 59 | 1011.7 |
| 20260507102544 | 17 | 77 | 8.0 | 16.1 | 0.00 | 0.30 | 0.00 | 60 | 1011.7 |
| 20260507102446 | 17 | 78 | 8.0 | 16.1 | 0.00 | 0.30 | 0.00 | 60 | 1011.7 |
| 20260507102345 | 17 | 81 | 8.0 | 16.1 | 0.00 | 0.30 | 0.00 | 60 | 1011.7 |
| 20260507102245 | 17 | 83 | 8.0 | 16.1 | 0.00 | 0.30 | 0.00 | 59 | 1011.7 |
| 20260507102144 | 17 | 84 | 9.7 | 16.1 | 0.00 | 0.30 | 0.00 | 59 | 1011.7 |
| 20260507102044 | 17 | 84 | 9.7 | 16.1 | 0.00 | 0.30 | 0.00 | 59 | 1011.7 |
| 20260507101944 | 17 | 84 | 9.7 | 16.1 | 0.00 | 0.30 | 0.00 | 58 | 1011.6 |
| 20260507101845 | 17 | 83 | 9.7 | 16.1 | 0.00 | 0.30 | 0.00 | 58 | 1011.6 |
| 20260507101745 | 17 | 85 | 9.7 | 16.1 | 0.00 | 0.30 | 0.00 | 59 | 1011.6 |
| 20260507101645 | 17 | 86 | 9.7 | 16.1 | 0.00 | 0.30 | 0.00 | 58 | 1011.6 |
| 20260507101544 | 17 | 88 | 9.7 | 16.1 | 0.00 | 0.30 | 0.00 | 58 | 1011.6 |
| 20260507101444 | 17 | 90 | 9.7 | 16.1 | 0.00 | 0.30 | 0.00 | 59 | 1011.6 |
| 20260507101346 | 17 | 90 | 9.7 | 16.1 | 0.00 | 0.30 | 0.00 | 59 | 1011.6 |
| 20260507101246 | 17 | 90 | 9.7 | 16.1 | 0.00 | 0.30 | 0.00 | 58 | 1011.7 |
| 20260507101146 | 17 | 90 | 9.7 | 16.1 | 0.00 | 0.30 | 0.00 | 58 | 1011.6 |
| 20260507101045 | 17 | 90 | 9.7 | 16.1 | 0.00 | 0.30 | 0.00 | 58 | 1011.6 |
| 20260507100945 | 17 | 92 | 8.0 | 16.1 | 0.00 | 0.30 | 0.00 | 58 | 1011.6 |
| 20260507100845 | 17 | 94 | 8.0 | 16.1 | 0.00 | 0.30 | 0.00 | 57 | 1011.6 |
| 20260507100745 | 17 | 96 | 6.4 | 14.5 | 0.00 | 0.30 | 0.00 | 58 | 1011.7 |
| 20260507100645 | 17 | 95 | 6.4 | 14.5 | 0.00 | 0.30 | 0.00 | 58 | 1011.7 |
| 20260507100545 | 17 | 94 | 6.4 | 14.5 | 0.00 | 0.30 | 0.00 | 58 | 1011.6 |
| 20260507100445 | 17 | 92 | 6.4 | 14.5 | 0.00 | 0.30 | 0.00 | 59 | 1011.6 |
| 20260507100345 | 17 | 89 | 6.4 | 14.5 | 0.00 | 0.30 | 0.00 | 59 | 1011.6 |
| 20260507100244 | 17 | 88 | 6.4 | 12.9 | 0.00 | 0.30 | 0.00 | 58 | 1011.7 |
| 20260507100146 | 17 | 86 | 6.4 | 12.9 | 0.00 | 0.30 | 0.00 | 59 | 1011.7 |
| 20260507100046 | 17 | 86 | 6.4 | 14.5 | 0.00 | 0.30 | 0.00 | 59 | 1011.8 |
| 20260507095945 | 17 | 84 | 6.4 | 14.5 | 0.00 | 0.30 | 0.00 | 59 | 1011.7 |
| 20260507095844 | 17 | 84 | 6.4 | 14.5 | 0.00 | 0.30 | 0.00 | 59 | 1011.7 |
| 20260507095744 | 17 | 85 | 6.4 | 14.5 | 0.00 | 0.30 | 0.00 | 59 | 1011.8 |
| 20260507095646 | 17 | 84 | 8.0 | 14.5 | 0.00 | 0.30 | 0.00 | 59 | 1011.8 |
| 20260507095546 | 16 | 82 | 8.0 | 14.5 | 0.00 | 0.30 | 0.00 | 60 | 1011.8 |
| 20260507095446 | 16 | 81 | 8.0 | 14.5 | 0.00 | 0.30 | 0.00 | 61 | 1011.7 |
| 20260507095345 | 16 | 81 | 8.0 | 14.5 | 0.00 | 0.30 | 0.00 | 60 | 1011.8 |
| 20260507095245 | 16 | 83 | 9.7 | 14.5 | 0.00 | 0.30 | 0.00 | 59 | 1011.9 |
| 20260507095144 | 16 | 85 | 9.7 | 14.5 | 0.00 | 0.30 | 0.00 | 60 | 1011.9 |
| 20260507095045 | 16 | 83 | 9.7 | 14.5 | 0.00 | 0.30 | 0.00 | 59 | 1011.9 |
| 20260507094945 | 16 | 82 | 9.7 | 14.5 | 0.00 | 0.30 | 0.00 | 60 | 1011.9 |
| 20260507094845 | 16 | 82 | 9.7 | 14.5 | 0.00 | 0.30 | 0.00 | 59 | 1011.8 |
| 20260507094745 | 16 | 80 | 9.7 | 14.5 | 0.00 | 0.30 | 0.00 | 58 | 1011.9 |
| 20260507094645 | 16 | 80 | 8.0 | 14.5 | 0.00 | 0.30 | 0.00 | 58 | 1011.9 |
| 20260507094545 | 16 | 81 | 9.7 | 14.5 | 0.00 | 0.30 | 0.00 | 58 | 1011.9 |
| 20260507094445 | 16 | 81 | 8.0 | 14.5 | 0.00 | 0.30 | 0.00 | 60 | 1011.8 |
| 20260507094345 | 16 | 81 | 8.0 | 14.5 | 0.00 | 0.30 | 0.00 | 59 | 1011.8 |
| 20260507094245 | 16 | 80 | 8.0 | 14.5 | 0.00 | 0.30 | 0.00 | 58 | 1011.8 |
| 20260507094144 | 16 | 76 | 6.4 | 14.5 | 0.00 | 0.30 | 0.00 | 59 | 1011.9 |
| 20260507094044 | 16 | 76 | 6.4 | 14.5 | 0.00 | 0.30 | 0.00 | 61 | 1011.9 |
| 20260507093944 | 16 | 78 | 6.4 | 14.5 | 0.00 | 0.30 | 0.00 | 60 | 1011.9 |
| 20260507093845 | 16 | 79 | 6.4 | 14.5 | 0.00 | 0.30 | 0.00 | 61 | 1011.8 |
| 20260507093745 | 16 | 75 | 4.8 | 14.5 | 0.00 | 0.30 | 0.00 | 60 | 1011.9 |
| 20260507093645 | 16 | 76 | 4.8 | 14.5 | 0.00 | 0.30 | 0.00 | 61 | 1011.8 |
| 20260507093545 | 16 | 77 | 4.8 | 12.9 | 0.00 | 0.30 | 0.00 | 61 | 1011.9 |
| 20260507093445 | 16 | 80 | 4.8 | 12.9 | 0.00 | 0.30 | 0.00 | 61 | 1011.8 |
| 20260507093344 | 16 | 84 | 4.8 | 12.9 | 0.00 | 0.30 | 0.00 | 61 | 1011.9 |
| 20260507093246 | 16 | 86 | 6.4 | 12.9 | 0.00 | 0.30 | 0.00 | 61 | 1011.9 |
| 20260507093145 | 16 | 90 | 6.4 | 12.9 | 0.00 | 0.30 | 0.00 | 61 | 1011.8 |
| 20260507093045 | 16 | 95 | 6.4 | 12.9 | 0.00 | 0.30 | 0.00 | 60 | 1011.8 |
| 20260507092945 | 16 | 96 | 6.4 | 12.9 | 0.00 | 0.30 | 0.00 | 60 | 1011.8 |
| 20260507092845 | 16 | 99 | 6.4 | 12.9 | 0.00 | 0.30 | 0.00 | 60 | 1011.7 |
| 20260507092745 | 16 | 100 | 6.4 | 12.9 | 0.00 | 0.30 | 0.00 | 60 | 1011.8 |
| 20260507092645 | 16 | 98 | 6.4 | 12.9 | 0.00 | 0.30 | 0.00 | 59 | 1011.7 |
| 20260507092545 | 16 | 102 | 6.4 | 12.9 | 0.00 | 0.30 | 0.00 | 59 | 1011.7 |
| 20260507092445 | 16 | 102 | 6.4 | 12.9 | 0.00 | 0.30 | 0.00 | 59 | 1011.7 |
| 20260507092344 | 16 | 103 | 6.4 | 12.9 | 0.00 | 0.30 | 0.00 | 60 | 1011.8 |
| 20260507092244 | 16 | 101 | 6.4 | 14.5 | 0.00 | 0.30 | 0.00 | 60 | 1011.8 |
| 20260507092146 | 16 | 99 | 6.4 | 14.5 | 0.00 | 0.30 | 0.00 | 60 | 1011.8 |
| 20260507092045 | 16 | 94 | 4.8 | 14.5 | 0.00 | 0.30 | 0.00 | 59 | 1011.8 |
| 20260507091945 | 16 | 89 | 4.8 | 14.5 | 0.00 | 0.30 | 0.00 | 62 | 1011.8 |
| 20260507091845 | 16 | 87 | 4.8 | 14.5 | 0.00 | 0.30 | 0.00 | 61 | 1011.8 |
| 20260507091745 | 16 | 91 | 4.8 | 14.5 | 0.00 | 0.30 | 0.00 | 61 | 1011.7 |
| 20260507091645 | 16 | 91 | 4.8 | 14.5 | 0.00 | 0.30 | 0.00 | 60 | 1011.8 |
| 20260507091545 | 16 | 90 | 4.8 | 14.5 | 0.00 | 0.30 | 0.00 | 62 | 1011.7 |
| 20260507091445 | 16 | 92 | 4.8 | 14.5 | 0.00 | 0.30 | 0.00 | 62 | 1011.7 |
| 20260507091345 | 16 | 96 | 3.2 | 14.5 | 0.00 | 0.30 | 0.00 | 61 | 1011.7 |
| 20260507091245 | 16 | 100 | 3.2 | 9.7 | 0.00 | 0.30 | 0.00 | 62 | 1011.7 |
| 20260507091144 | 16 | 105 | 3.2 | 9.7 | 0.00 | 0.30 | 0.00 | 62 | 1011.7 |
| 20260507091044 | 16 | 113 | 3.2 | 9.7 | 0.00 | 0.30 | 0.00 | 62 | 1011.7 |
| 20260507090944 | 16 | 113 | 3.2 | 9.7 | 0.00 | 0.30 | 0.00 | 62 | 1011.8 |
| 20260507090846 | 16 | 110 | 3.2 | 9.7 | 0.00 | 0.30 | 0.00 | 61 | 1011.7 |
| 20260507090746 | 16 | 104 | 1.6 | 6.4 | 0.00 | 0.30 | 0.00 | 61 | 1011.7 |
| 20260507090645 | 16 | 111 | 1.6 | 6.4 | 0.00 | 0.30 | 0.00 | 61 | 1011.8 |
| 20260507090544 | 16 | 104 | 3.2 | 11.3 | 0.00 | 0.30 | 0.00 | 63 | 1011.8 |
| 20260507090444 | 16 | 97 | 3.2 | 11.3 | 0.00 | 0.30 | 0.00 | 64 | 1011.7 |
| 20260507090344 | 16 | 90 | 3.2 | 11.3 | 0.00 | 0.30 | 0.00 | 65 | 1011.8 |
| 20260507090245 | 16 | 90 | 3.2 | 11.3 | 0.00 | 0.30 | 0.00 | 66 | 1011.7 |
| 20260507090145 | 16 | 90 | 3.2 | 11.3 | 0.00 | 0.30 | 0.00 | 66 | 1011.8 |
| 20260507090045 | 16 | 87 | 3.2 | 11.3 | 0.00 | 0.30 | 0.00 | 65 | 1011.8 |
| 20260507085944 | 16 | 88 | 3.2 | 11.3 | 0.00 | 0.30 | 0.00 | 66 | 1011.8 |
| 20260507085846 | 16 | 88 | 1.6 | 11.3 | 0.00 | 0.30 | 0.00 | 65 | 1011.8 |
| 20260507085746 | 16 | 87 | 1.6 | 11.3 | 0.00 | 0.30 | 0.00 | 65 | 1011.8 |
| 20260507085645 | 16 | 77 | 1.6 | 11.3 | 0.00 | 0.30 | 0.00 | 66 | 1011.9 |
| 20260507085545 | 16 | 68 | 1.6 | 11.3 | 0.00 | 0.30 | 0.00 | 67 | 1011.8 |
| 20260507085445 | 16 | 40 | 1.6 | 4.8 | 0.00 | 0.30 | 0.00 | 68 | 1011.8 |
| 20260507085345 | 16 | 35 | 0.0 | 3.2 | 0.00 | 0.30 | 0.00 | 68 | 1011.8 |
| 20260507085245 | 15 | 31 | 0.0 | 3.2 | 0.00 | 0.30 | 0.00 | 67 | 1011.8 |
| 20260507085145 | 16 | 28 | 0.0 | 3.2 | 0.00 | 0.30 | 0.00 | 66 | 1011.8 |
| 20260507085044 | 16 | 13 | 0.0 | 3.2 | 0.00 | 0.30 | 0.00 | 66 | 1011.8 |
| 20260507084944 | 16 | 350 | 0.0 | 4.8 | 0.00 | 0.30 | 0.00 | 66 | 1011.8 |
| 20260507084845 | 16 | 335 | 0.0 | 4.8 | 0.00 | 0.30 | 0.00 | 67 | 1011.8 |
| 20260507084745 | 16 | 331 | 1.6 | 4.8 | 0.00 | 0.30 | 0.00 | 67 | 1011.9 |
| 20260507084645 | 16 | 322 | 1.6 | 4.8 | 0.00 | 0.30 | 0.00 | 68 | 1011.9 |
| 20260507084545 | 15 | 326 | 1.6 | 4.8 | 0.00 | 0.30 | 0.00 | 68 | 1011.8 |
| 20260507084445 | 15 | 327 | 1.6 | 4.8 | 0.00 | 0.30 | 0.00 | 69 | 1011.8 |
| 20260507084345 | 15 | 328 | 1.6 | 4.8 | 0.00 | 0.30 | 0.00 | 70 | 1011.9 |
| 20260507084245 | 15 | 328 | 1.6 | 4.8 | 0.00 | 0.30 | 0.00 | 69 | 1011.9 |
| 20260507084146 | 15 | 332 | 1.6 | 4.8 | 0.00 | 0.30 | 0.00 | 69 | 1012.0 |
| 20260507084046 | 15 | 339 | 1.6 | 4.8 | 0.00 | 0.30 | 0.00 | 69 | 1011.8 |
| 20260507083945 | 15 | 345 | 1.6 | 4.8 | 0.00 | 0.30 | 0.00 | 69 | 1011.9 |
| 20260507083845 | 15 | 350 | 1.6 | 4.8 | 0.00 | 0.30 | 0.00 | 68 | 1011.8 |
| 20260507083745 | 15 | 353 | 1.6 | 6.4 | 0.00 | 0.30 | 0.00 | 69 | 1011.8 |
| 20260507083644 | 15 | 3 | 1.6 | 6.4 | 0.00 | 0.30 | 0.00 | 69 | 1011.8 |
| 20260507083544 | 15 | 6 | 3.2 | 6.4 | 0.00 | 0.30 | 0.00 | 69 | 1011.8 |
| 20260507083444 | 15 | 4 | 3.2 | 6.4 | 0.00 | 0.30 | 0.00 | 68 | 1011.8 |
| 20260507083346 | 15 | 3 | 3.2 | 6.4 | 0.00 | 0.30 | 0.00 | 68 | 1011.9 |
| 20260507083245 | 15 | 4 | 3.2 | 6.4 | 0.00 | 0.30 | 0.00 | 68 | 1011.8 |
| 20260507083145 | 15 | 2 | 3.2 | 6.4 | 0.00 | 0.30 | 0.00 | 68 | 1011.9 |
| 20260507083044 | 15 | 358 | 3.2 | 6.4 | 0.00 | 0.30 | 0.00 | 68 | 1011.8 |
| 20260507082944 | 15 | 359 | 3.2 | 6.4 | 0.00 | 0.30 | 0.00 | 69 | 1011.9 |
| 20260507082846 | 15 | 5 | 3.2 | 6.4 | 0.00 | 0.30 | 0.00 | 69 | 1011.9 |
| 20260507082746 | 15 | 9 | 3.2 | 6.4 | 0.00 | 0.30 | 0.00 | 68 | 1011.9 |
| 20260507082645 | 15 | 11 | 3.2 | 6.4 | 0.00 | 0.30 | 0.00 | 68 | 1011.9 |
| 20260507082545 | 15 | 13 | 3.2 | 6.4 | 0.00 | 0.30 | 0.00 | 69 | 1011.9 |
| 20260507082445 | 15 | 13 | 3.2 | 6.4 | 0.00 | 0.30 | 0.00 | 69 | 1011.9 |
| 20260507082344 | 15 | 13 | 3.2 | 6.4 | 0.00 | 0.30 | 0.00 | 69 | 1011.9 |
| 20260507082246 | 14 | 12 | 3.2 | 6.4 | 0.00 | 0.30 | 0.00 | 69 | 1011.9 |
| 20260507082145 | 14 | 13 | 3.2 | 9.7 | 0.00 | 0.30 | 0.00 | 69 | 1011.9 |
| 20260507082045 | 14 | 9 | 3.2 | 9.7 | 0.00 | 0.30 | 0.00 | 69 | 1011.9 |
| 20260507081945 | 14 | 3 | 3.2 | 9.7 | 0.00 | 0.30 | 0.00 | 69 | 1011.9 |
| 20260507081845 | 14 | 357 | 4.8 | 11.3 | 0.00 | 0.30 | 0.00 | 69 | 1011.9 |
| 20260507081744 | 14 | 353 | 4.8 | 11.3 | 0.00 | 0.30 | 0.00 | 68 | 1011.9 |
| 20260507081646 | 15 | 349 | 4.8 | 11.3 | 0.00 | 0.30 | 0.00 | 69 | 1011.9 |
| 20260507081546 | 14 | 347 | 4.8 | 11.3 | 0.00 | 0.30 | 0.00 | 69 | 1012.0 |
| 20260507081444 | 14 | 346 | 4.8 | 11.3 | 0.00 | 0.30 | 0.00 | 68 | 1012.0 |
| 20260507081346 | 14 | 346 | 4.8 | 11.3 | 0.00 | 0.30 | 0.00 | 68 | 1012.0 |
| 20260507081246 | 14 | 347 | 4.8 | 11.3 | 0.00 | 0.30 | 0.00 | 68 | 1012.0 |
| 20260507081145 | 14 | 347 | 4.8 | 11.3 | 0.00 | 0.30 | 0.00 | 68 | 1011.9 |
| 20260507081045 | 14 | 346 | 4.8 | 11.3 | 0.00 | 0.30 | 0.00 | 67 | 1011.9 |
| 20260507080945 | 14 | 346 | 4.8 | 12.9 | 0.00 | 0.30 | 0.00 | 69 | 1011.9 |
| 20260507080845 | 14 | 348 | 4.8 | 12.9 | 0.00 | 0.30 | 0.00 | 70 | 1011.9 |
| 20260507080745 | 14 | 348 | 4.8 | 12.9 | 0.00 | 0.30 | 0.00 | 70 | 1011.9 |
| 20260507080646 | 14 | 349 | 4.8 | 12.9 | 0.00 | 0.30 | 0.00 | 70 | 1011.9 |
| 20260507080545 | 14 | 349 | 4.8 | 12.9 | 0.00 | 0.30 | 0.00 | 70 | 1011.9 |
| 20260507080445 | 14 | 349 | 4.8 | 12.9 | 0.00 | 0.30 | 0.00 | 69 | 1012.0 |
| 20260507080345 | 14 | 349 | 4.8 | 12.9 | 0.00 | 0.30 | 0.00 | 70 | 1011.9 |
| 20260507080245 | 14 | 348 | 6.4 | 12.9 | 0.00 | 0.30 | 0.00 | 69 | 1012.0 |
| 20260507080144 | 14 | 346 | 4.8 | 12.9 | 0.00 | 0.30 | 0.00 | 70 | 1012.0 |
| 20260507080044 | 13 | 349 | 6.4 | 12.9 | 0.00 | 0.30 | 0.00 | 70 | 1012.0 |
| 20260507075944 | 13 | 352 | 6.4 | 12.9 | 0.00 | 0.30 | 0.00 | 69 | 1012.0 |
| 20260507075846 | 13 | 351 | 6.4 | 12.9 | 0.00 | 0.30 | 0.00 | 71 | 1011.9 |
| 20260507075746 | 13 | 352 | 6.4 | 12.9 | 0.00 | 0.30 | 0.00 | 70 | 1012.0 |
| 20260507075645 | 13 | 354 | 6.4 | 12.9 | 0.00 | 0.30 | 0.00 | 71 | 1012.1 |
| 20260507075545 | 13 | 356 | 6.4 | 12.9 | 0.00 | 0.30 | 0.00 | 71 | 1012.0 |
| 20260507075445 | 13 | 1 | 6.4 | 12.9 | 0.00 | 0.30 | 0.00 | 71 | 1012.1 |
| 20260507075345 | 13 | 2 | 6.4 | 12.9 | 0.00 | 0.30 | 0.00 | 72 | 1012.1 |
| 20260507075245 | 13 | 4 | 6.4 | 12.9 | 0.00 | 0.30 | 0.00 | 72 | 1012.1 |
| 20260507075145 | 13 | 5 | 6.4 | 12.9 | 0.00 | 0.30 | 0.00 | 73 | 1012.1 |
| 20260507075044 | 13 | 5 | 6.4 | 12.9 | 0.00 | 0.30 | 0.00 | 73 | 1012.1 |
| 20260507074944 | 13 | 6 | 6.4 | 11.3 | 0.00 | 0.30 | 0.00 | 73 | 1012.0 |
| 20260507074844 | 13 | 8 | 6.4 | 11.3 | 0.00 | 0.30 | 0.00 | 73 | 1012.0 |
| 20260507074746 | 13 | 10 | 6.4 | 11.3 | 0.00 | 0.30 | 0.00 | 74 | 1012.0 |
| 20260507074645 | 13 | 9 | 6.4 | 11.3 | 0.00 | 0.30 | 0.00 | 73 | 1012.1 |
| 20260507074545 | 13 | 10 | 6.4 | 11.3 | 0.00 | 0.30 | 0.00 | 73 | 1012.1 |
| 20260507074445 | 13 | 8 | 4.8 | 11.3 | 0.00 | 0.30 | 0.00 | 73 | 1012.1 |
| 20260507074345 | 13 | 8 | 4.8 | 11.3 | 0.00 | 0.30 | 0.00 | 73 | 1012.1 |
| 20260507074245 | 13 | 11 | 4.8 | 11.3 | 0.00 | 0.30 | 0.00 | 74 | 1012.0 |
| 20260507074145 | 13 | 16 | 4.8 | 9.7 | 0.00 | 0.30 | 0.00 | 74 | 1012.1 |
| 20260507074045 | 13 | 18 | 4.8 | 9.7 | 0.00 | 0.30 | 0.00 | 74 | 1012.1 |
| 20260507073945 | 13 | 18 | 4.8 | 9.7 | 0.00 | 0.30 | 0.00 | 75 | 1012.1 |
| 20260507073845 | 13 | 18 | 4.8 | 9.7 | 0.00 | 0.30 | 0.00 | 75 | 1012.0 |
| 20260507073745 | 13 | 20 | 4.8 | 9.7 | 0.00 | 0.30 | 0.00 | 75 | 1012.1 |
| 20260507073644 | 13 | 27 | 3.2 | 9.7 | 0.00 | 0.30 | 0.00 | 75 | 1012.1 |
| 20260507073544 | 13 | 24 | 3.2 | 6.4 | 0.00 | 0.30 | 0.00 | 76 | 1012.2 |
| 20260507073444 | 13 | 25 | 3.2 | 6.4 | 0.00 | 0.30 | 0.00 | 77 | 1012.2 |
| 20260507073344 | 12 | 24 | 3.2 | 6.4 | 0.00 | 0.30 | 0.00 | 76 | 1012.2 |
| 20260507073245 | 12 | 21 | 3.2 | 6.4 | 0.00 | 0.30 | 0.00 | 77 | 1012.2 |
| 20260507073145 | 12 | 16 | 3.2 | 9.7 | 0.00 | 0.30 | 0.00 | 78 | 1012.3 |
| 20260507073045 | 12 | 10 | 3.2 | 9.7 | 0.00 | 0.30 | 0.00 | 78 | 1012.3 |
| 20260507072944 | 12 | 11 | 3.2 | 9.7 | 0.00 | 3.66 | 0.00 | 77 | 1012.3 |
| 20260507072844 | 12 | 9 | 3.2 | 9.7 | 0.00 | 3.66 | 0.00 | 78 | 1012.3 |
| 20260507072745 | 12 | 3 | 4.8 | 9.7 | 0.00 | 3.66 | 0.00 | 77 | 1012.3 |
| 20260507072645 | 12 | 356 | 3.2 | 9.7 | 0.00 | 3.66 | 0.00 | 79 | 1012.3 |
| 20260507072545 | 12 | 355 | 3.2 | 9.7 | 0.00 | 3.66 | 0.00 | 79 | 1012.3 |
| 20260507072445 | 12 | 353 | 3.2 | 9.7 | 0.00 | 3.76 | 0.00 | 79 | 1012.3 |
| 20260507072345 | 12 | 353 | 3.2 | 9.7 | 0.00 | 3.76 | 0.00 | 79 | 1012.2 |
| 20260507072245 | 12 | 350 | 3.2 | 9.7 | 0.00 | 3.76 | 0.00 | 78 | 1012.3 |
| 20260507072145 | 12 | 350 | 3.2 | 11.3 | 0.00 | 3.76 | 0.00 | 78 | 1012.3 |
| 20260507072045 | 12 | 348 | 3.2 | 11.3 | 0.00 | 3.76 | 0.00 | 79 | 1012.1 |
| 20260507071945 | 12 | 343 | 3.2 | 11.3 | 0.00 | 3.76 | 0.00 | 79 | 1012.2 |
| 20260507071845 | 12 | 341 | 3.2 | 11.3 | 0.00 | 3.76 | 0.00 | 79 | 1012.2 |
| 20260507071745 | 12 | 341 | 3.2 | 11.3 | 0.00 | 3.76 | 0.00 | 80 | 1012.3 |
| 20260507071646 | 12 | 344 | 3.2 | 11.3 | 0.00 | 3.76 | 0.00 | 80 | 1012.3 |
| 20260507071545 | 12 | 345 | 4.8 | 11.3 | 0.00 | 3.76 | 0.00 | 80 | 1012.3 |
| 20260507071445 | 12 | 348 | 4.8 | 11.3 | 0.00 | 3.76 | 0.00 | 80 | 1012.4 |
| 20260507071345 | 12 | 349 | 4.8 | 11.3 | 0.00 | 3.76 | 0.00 | 80 | 1012.4 |
| 20260507071245 | 12 | 350 | 4.8 | 11.3 | 0.00 | 3.76 | 0.00 | 79 | 1012.4 |
| 20260507071144 | 12 | 349 | 6.4 | 12.9 | 0.00 | 3.76 | 0.00 | 80 | 1012.3 |
| 20260507071044 | 12 | 352 | 6.4 | 12.9 | 0.00 | 3.76 | 0.00 | 81 | 1012.3 |
| 20260507070944 | 12 | 356 | 6.4 | 12.9 | 0.00 | 3.76 | 0.00 | 81 | 1012.3 |
| 20260507070846 | 12 | 358 | 6.4 | 12.9 | 0.00 | 3.76 | 0.00 | 81 | 1012.4 |
| 20260507070746 | 11 | 359 | 6.4 | 12.9 | 0.00 | 3.76 | 0.00 | 81 | 1012.3 |
| 20260507070644 | 11 | 1 | 6.4 | 12.9 | 0.00 | 3.76 | 0.00 | 81 | 1012.3 |
| 20260507070544 | 11 | 1 | 6.4 | 12.9 | 0.00 | 3.76 | 0.00 | 82 | 1012.2 |
| 20260507070444 | 11 | 359 | 6.4 | 12.9 | 0.00 | 3.84 | 0.00 | 81 | 1012.3 |
| 20260507070346 | 11 | 359 | 4.8 | 12.9 | 0.00 | 3.84 | 0.00 | 82 | 1012.3 |
| 20260507070244 | 11 | 359 | 4.8 | 12.9 | 0.00 | 3.84 | 0.00 | 82 | 1012.3 |
| 20260507070146 | 11 | 2 | 4.8 | 11.3 | 0.00 | 3.84 | 0.00 | 82 | 1012.3 |
| 20260507070046 | 11 | 359 | 4.8 | 11.3 | 0.00 | 3.84 | 0.00 | 82 | 1012.3 |
| 20260507065945 | 11 | 358 | 4.8 | 11.3 | 0.00 | 3.84 | 0.00 | 82 | 1012.2 |
| 20260507065845 | 11 | 1 | 4.8 | 12.9 | 0.00 | 3.84 | 0.00 | 82 | 1012.2 |
| 20260507065745 | 11 | 359 | 4.8 | 14.5 | 0.00 | 3.84 | 0.00 | 82 | 1012.2 |
| 20260507065644 | 11 | 359 | 4.8 | 14.5 | 0.00 | 3.84 | 0.00 | 82 | 1012.2 |
| 20260507065544 | 11 | 357 | 4.8 | 14.5 | 0.00 | 3.84 | 0.00 | 82 | 1012.1 |
| 20260507065444 | 11 | 358 | 4.8 | 14.5 | 0.00 | 3.84 | 0.00 | 82 | 1012.1 |
| 20260507065344 | 11 | 356 | 4.8 | 14.5 | 0.00 | 3.84 | 0.00 | 82 | 1012.2 |
| 20260507065244 | 11 | 354 | 4.8 | 14.5 | 0.00 | 3.84 | 0.00 | 82 | 1012.2 |
| 20260507065146 | 11 | 354 | 6.4 | 14.5 | 0.00 | 3.84 | 0.00 | 82 | 1012.1 |
| 20260507065045 | 11 | 353 | 6.4 | 14.5 | 0.00 | 3.84 | 0.00 | 82 | 1012.1 |
| 20260507064945 | 11 | 350 | 6.4 | 14.5 | 0.00 | 3.84 | 0.00 | 82 | 1012.1 |
| 20260507064845 | 11 | 349 | 6.4 | 14.5 | 0.00 | 3.84 | 0.00 | 82 | 1012.1 |
| 20260507064744 | 11 | 349 | 6.4 | 14.5 | 0.00 | 3.84 | 0.00 | 83 | 1012.2 |
| 20260507064644 | 11 | 349 | 6.4 | 14.5 | 0.00 | 3.84 | 0.00 | 83 | 1012.2 |
| 20260507064544 | 11 | 353 | 6.4 | 14.5 | 0.00 | 3.84 | 0.00 | 83 | 1012.1 |
| 20260507064445 | 11 | 355 | 8.0 | 14.5 | 0.00 | 3.84 | 0.00 | 83 | 1012.1 |
| 20260507064345 | 11 | 356 | 8.0 | 14.5 | 0.00 | 3.84 | 0.00 | 83 | 1012.1 |
| 20260507064244 | 11 | 357 | 6.4 | 14.5 | 0.00 | 3.84 | 0.00 | 83 | 1012.2 |
| 20260507064145 | 11 | 358 | 6.4 | 14.5 | 0.00 | 3.84 | 0.00 | 83 | 1012.2 |
| 20260507064045 | 11 | 1 | 6.4 | 14.5 | 0.00 | 3.84 | 0.00 | 83 | 1012.2 |
| 20260507063945 | 11 | 3 | 6.4 | 14.5 | 0.00 | 3.84 | 0.00 | 83 | 1012.2 |
| 20260507063845 | 11 | 4 | 4.8 | 14.5 | 0.00 | 3.84 | 0.00 | 83 | 1012.2 |
| 20260507063745 | 11 | 5 | 4.8 | 14.5 | 0.00 | 3.84 | 0.00 | 83 | 1012.3 |
| 20260507063645 | 11 | 9 | 4.8 | 12.9 | 0.00 | 3.84 | 0.00 | 82 | 1012.2 |
| 20260507063544 | 11 | 8 | 4.8 | 12.9 | 0.00 | 3.84 | 0.00 | 84 | 1012.2 |
| 20260507063444 | 11 | 8 | 3.2 | 6.4 | 0.00 | 3.84 | 0.00 | 84 | 1012.2 |
| 20260507063344 | 11 | 9 | 3.2 | 6.4 | 0.00 | 3.84 | 0.00 | 84 | 1012.2 |
| 20260507063245 | 11 | 10 | 3.2 | 6.4 | 0.00 | 3.84 | 0.00 | 84 | 1012.1 |
| 20260507063145 | 11 | 7 | 4.8 | 6.4 | 0.00 | 3.84 | 0.00 | 84 | 1012.1 |
| 20260507063045 | 11 | 6 | 4.8 | 6.4 | 0.00 | 3.84 | 0.00 | 84 | 1012.1 |
| 20260507062944 | 11 | 7 | 3.2 | 6.4 | 0.00 | 2.95 | 0.00 | 85 | 1012.1 |
| 20260507062844 | 11 | 1 | 3.2 | 9.7 | 0.00 | 2.95 | 0.00 | 85 | 1012.1 |
| 20260507062744 | 11 | 3 | 3.2 | 9.7 | 0.00 | 2.95 | 0.00 | 85 | 1012.1 |
| 20260507062645 | 11 | 4 | 4.8 | 9.7 | 0.00 | 2.95 | 0.00 | 85 | 1012.1 |
| 20260507062545 | 11 | 8 | 4.8 | 9.7 | 0.00 | 2.95 | 0.00 | 85 | 1012.1 |
| 20260507062445 | 11 | 8 | 4.8 | 9.7 | 0.00 | 3.05 | 0.00 | 85 | 1012.1 |
| 20260507062345 | 11 | 6 | 4.8 | 9.7 | 0.00 | 3.05 | 0.00 | 86 | 1012.1 |
| 20260507062246 | 11 | 5 | 4.8 | 9.7 | 0.00 | 3.05 | 0.00 | 86 | 1012.1 |
| 20260507062145 | 11 | 8 | 4.8 | 9.7 | 0.00 | 3.05 | 0.00 | 87 | 1012.0 |
| 20260507062045 | 10 | 10 | 4.8 | 9.7 | 0.00 | 3.05 | 0.00 | 87 | 1012.1 |
| 20260507061945 | 10 | 10 | 4.8 | 9.7 | 0.00 | 3.05 | 0.00 | 87 | 1012.0 |
| 20260507061845 | 10 | 11 | 4.8 | 9.7 | 0.00 | 3.05 | 0.00 | 86 | 1012.1 |
| 20260507061745 | 10 | 8 | 4.8 | 9.7 | 0.00 | 3.05 | 0.00 | 86 | 1012.0 |
| 20260507061645 | 10 | 5 | 4.8 | 9.7 | 0.00 | 3.05 | 0.00 | 86 | 1012.0 |
| 20260507061545 | 10 | 1 | 4.8 | 9.7 | 0.00 | 3.05 | 0.00 | 87 | 1012.0 |
| 20260507061444 | 10 | 358 | 4.8 | 9.7 | 0.00 | 3.15 | 0.00 | 86 | 1012.0 |
| 20260507061344 | 10 | 355 | 3.2 | 9.7 | 0.00 | 3.15 | 0.00 | 86 | 1012.1 |
| 20260507061244 | 10 | 353 | 4.8 | 9.7 | 0.00 | 3.15 | 0.00 | 86 | 1012.1 |
| 20260507061145 | 10 | 352 | 4.8 | 9.7 | 0.00 | 3.15 | 0.00 | 87 | 1012.0 |
| 20260507061045 | 10 | 348 | 4.8 | 9.7 | 0.00 | 3.15 | 0.00 | 87 | 1011.9 |
| 20260507060945 | 10 | 348 | 4.8 | 9.7 | 0.00 | 3.25 | 0.00 | 87 | 1011.9 |
| 20260507060844 | 10 | 349 | 4.8 | 9.7 | 0.00 | 3.25 | 0.00 | 87 | 1012.0 |
| 20260507060744 | 10 | 350 | 3.2 | 9.7 | 0.00 | 3.25 | 0.00 | 87 | 1012.0 |
| 20260507060646 | 10 | 351 | 4.8 | 9.7 | 0.00 | 3.25 | 0.00 | 87 | 1012.0 |
| 20260507060545 | 10 | 353 | 4.8 | 9.7 | 0.00 | 3.25 | 0.00 | 87 | 1012.0 |
| 20260507060445 | 10 | 355 | 4.8 | 9.7 | 0.00 | 3.25 | 0.00 | 87 | 1012.0 |
| 20260507060345 | 10 | 357 | 3.2 | 9.7 | 0.00 | 3.25 | 0.00 | 87 | 1012.0 |
| 20260507060244 | 10 | 359 | 3.2 | 9.7 | 0.00 | 3.25 | 0.00 | 87 | 1012.0 |
| 20260507060144 | 10 | 359 | 3.2 | 6.4 | 0.00 | 3.25 | 0.00 | 87 | 1012.0 |
| 20260507060044 | 10 | 2 | 1.6 | 6.4 | 0.00 | 3.25 | 0.00 | 87 | 1012.0 |
| 20260507055945 | 10 | 4 | 1.6 | 6.4 | 0.00 | 3.35 | 0.00 | 88 | 1012.0 |
| 20260507055845 | 10 | 5 | 1.6 | 6.4 | 0.00 | 3.35 | 0.00 | 88 | 1012.0 |
| 20260507055745 | 10 | 6 | 1.6 | 4.8 | 0.00 | 3.35 | 0.00 | 87 | 1012.0 |
| 20260507055644 | 10 | 2 | 1.6 | 4.8 | 0.00 | 3.35 | 0.00 | 87 | 1012.0 |
| 20260507055544 | 10 | 2 | 1.6 | 4.8 | 0.00 | 3.35 | 0.00 | 88 | 1012.0 |
| 20260507055444 | 10 | 5 | 1.6 | 4.8 | 0.00 | 3.45 | 0.00 | 89 | 1012.0 |
| 20260507055346 | 10 | 7 | 1.6 | 4.8 | 0.00 | 3.45 | 0.00 | 89 | 1012.0 |
| 20260507055245 | 10 | 8 | 1.6 | 4.8 | 0.00 | 3.45 | 0.00 | 89 | 1012.0 |
| 20260507055145 | 10 | 8 | 1.6 | 4.8 | 0.00 | 3.45 | 0.00 | 89 | 1012.0 |
| 20260507055045 | 10 | 7 | 1.6 | 4.8 | 0.00 | 3.45 | 0.00 | 89 | 1012.0 |
| 20260507054945 | 10 | 5 | 1.6 | 4.8 | 0.00 | 3.56 | 0.00 | 89 | 1012.0 |
| 20260507054845 | 10 | 5 | 1.6 | 4.8 | 0.00 | 3.56 | 0.00 | 88 | 1012.0 |
| 20260507054745 | 10 | 7 | 1.6 | 4.8 | 0.00 | 3.56 | 0.00 | 89 | 1012.1 |
| 20260507054644 | 10 | 13 | 1.6 | 4.8 | 0.00 | 3.56 | 0.00 | 89 | 1012.1 |
| 20260507054544 | 10 | 11 | 1.6 | 9.7 | 0.00 | 3.56 | 0.00 | 88 | 1012.0 |
| 20260507054446 | 10 | 4 | 1.6 | 9.7 | 0.00 | 3.56 | 0.00 | 88 | 1011.9 |
| 20260507054346 | 10 | 1 | 1.6 | 9.7 | 0.00 | 3.56 | 0.00 | 88 | 1011.9 |
| 20260507054245 | 10 | 1 | 1.6 | 9.7 | 0.00 | 3.56 | 0.00 | 88 | 1011.8 |
| 20260507054144 | 10 | 1 | 1.6 | 9.7 | 0.00 | 3.56 | 0.00 | 89 | 1011.9 |
| 20260507054044 | 10 | 359 | 1.6 | 9.7 | 0.00 | 3.56 | 0.00 | 89 | 1011.9 |
| 20260507053944 | 10 | 358 | 1.6 | 9.7 | 0.00 | 3.56 | 0.00 | 89 | 1011.9 |
| 20260507053845 | 10 | 358 | 1.6 | 9.7 | 0.00 | 3.56 | 0.00 | 89 | 1011.9 |
| 20260507053745 | 10 | 357 | 1.6 | 9.7 | 0.00 | 3.56 | 0.00 | 89 | 1011.9 |
| 20260507053645 | 10 | 356 | 1.6 | 9.7 | 0.00 | 3.56 | 0.00 | 89 | 1011.9 |
| 20260507053544 | 10 | 356 | 1.6 | 6.4 | 0.00 | 3.56 | 0.00 | 89 | 1012.0 |
| 20260507053444 | 10 | 355 | 1.6 | 4.8 | 0.00 | 3.56 | 0.00 | 90 | 1011.9 |
| 20260507053344 | 10 | 353 | 1.6 | 4.8 | 0.00 | 3.56 | 0.00 | 90 | 1011.8 |
| 20260507053245 | 10 | 355 | 1.6 | 4.8 | 0.00 | 3.56 | 0.00 | 90 | 1011.9 |
| 20260507053144 | 10 | 353 | 1.6 | 4.8 | 0.00 | 3.56 | 0.00 | 90 | 1011.9 |
| 20260507053044 | 10 | 353 | 1.6 | 4.8 | 0.00 | 3.56 | 0.00 | 90 | 1011.9 |
| 20260507052946 | 10 | 351 | 1.6 | 4.8 | 0.00 | 3.56 | 0.00 | 90 | 1011.9 |
| 20260507052845 | 10 | 348 | 1.6 | 4.8 | 0.00 | 3.56 | 0.00 | 90 | 1011.9 |
| 20260507052745 | 10 | 346 | 1.6 | 4.8 | 0.00 | 3.56 | 0.00 | 90 | 1011.9 |
| 20260507052644 | 10 | 345 | 1.6 | 4.8 | 0.00 | 3.56 | 0.00 | 90 | 1011.9 |
| 20260507052544 | 10 | 343 | 1.6 | 4.8 | 0.00 | 3.56 | 0.00 | 90 | 1012.0 |
| 20260507052444 | 10 | 341 | 1.6 | 4.8 | 0.00 | 3.56 | 0.00 | 90 | 1012.0 |
| 20260507052345 | 10 | 341 | 1.6 | 4.8 | 0.00 | 3.56 | 0.00 | 90 | 1012.0 |
| 20260507052246 | 10 | 329 | 1.6 | 4.8 | 0.00 | 3.56 | 0.00 | 90 | 1012.0 |
| 20260507052145 | 10 | 321 | 0.0 | 3.2 | 0.00 | 3.56 | 0.00 | 90 | 1012.0 |
| 20260507052045 | 10 | 322 | 1.6 | 3.2 | 0.00 | 3.56 | 0.00 | 90 | 1012.1 |
| 20260507051945 | 10 | 323 | 1.6 | 3.2 | 0.00 | 3.66 | 0.00 | 90 | 1012.0 |
| 20260507051846 | 10 | 324 | 1.6 | 3.2 | 0.00 | 3.66 | 0.00 | 90 | 1012.0 |
| 20260507051745 | 10 | 325 | 1.6 | 3.2 | 0.00 | 3.66 | 0.00 | 90 | 1012.0 |
| 20260507051645 | 10 | 325 | 1.6 | 3.2 | 0.00 | 3.66 | 0.00 | 91 | 1012.0 |
| 20260507051545 | 10 | 327 | 1.6 | 3.2 | 0.00 | 3.66 | 0.00 | 91 | 1011.9 |
| 20260507051444 | 10 | 330 | 1.6 | 3.2 | 0.00 | 3.66 | 0.00 | 90 | 1011.9 |
| 20260507051344 | 10 | 333 | 1.6 | 3.2 | 0.00 | 3.66 | 0.00 | 91 | 1012.0 |
| 20260507051246 | 10 | 339 | 1.6 | 3.2 | 0.00 | 3.66 | 0.00 | 90 | 1011.8 |
| 20260507051145 | 10 | 350 | 0.0 | 3.2 | 0.00 | 3.66 | 0.00 | 91 | 1011.8 |
| 20260507051045 | 10 | 2 | 0.0 | 3.2 | 0.00 | 3.66 | 0.00 | 90 | 1011.8 |
| 20260507050945 | 10 | 15 | 0.0 | 1.6 | 0.00 | 3.76 | 0.00 | 91 | 1011.8 |
| 20260507050845 | 10 | 29 | 0.0 | 3.2 | 0.00 | 3.76 | 0.00 | 91 | 1011.8 |
| 20260507050744 | 10 | 30 | 0.0 | 3.2 | 0.00 | 3.76 | 0.00 | 91 | 1011.8 |
| 20260507050646 | 10 | 29 | 0.0 | 3.2 | 0.00 | 3.76 | 0.00 | 91 | 1011.9 |
| 20260507050545 | 10 | 28 | 0.0 | 3.2 | 0.00 | 3.76 | 0.00 | 91 | 1011.8 |
| 20260507050445 | 10 | 25 | 0.0 | 3.2 | 0.00 | 3.76 | 0.00 | 91 | 1011.8 |
| 20260507050345 | 10 | 25 | 0.0 | 3.2 | 0.00 | 3.76 | 0.00 | 91 | 1011.8 |
| 20260507050245 | 10 | 26 | 0.0 | 3.2 | 0.00 | 3.76 | 0.00 | 91 | 1011.8 |
| 20260507050144 | 10 | 23 | 0.0 | 3.2 | 0.00 | 3.76 | 0.00 | 91 | 1011.7 |
| 20260507050044 | 10 | 11 | 0.0 | 3.2 | 0.00 | 3.76 | 0.00 | 91 | 1011.8 |
| 20260507045946 | 10 | 8 | 0.0 | 3.2 | 0.00 | 3.76 | 0.00 | 91 | 1011.8 |
| 20260507045845 | 10 | 328 | 0.0 | 1.6 | 0.00 | 3.76 | 0.00 | 91 | 1011.8 |
| 20260507045745 | 10 | 312 | 0.0 | 0.0 | 0.00 | 3.76 | 0.00 | 91 | 1011.8 |
| 20260507045644 | 10 | 329 | 0.0 | 1.6 | 0.00 | 3.76 | 0.00 | 92 | 1011.7 |
| 20260507045544 | 10 | 336 | 0.0 | 1.6 | 0.00 | 3.76 | 0.00 | 92 | 1011.7 |
| 20260507045444 | 10 | 342 | 0.0 | 1.6 | 0.00 | 3.76 | 0.00 | 92 | 1011.7 |
| 20260507045345 | 10 | 343 | 0.0 | 1.6 | 0.00 | 3.76 | 0.00 | 92 | 1011.8 |
| 20260507045244 | 10 | 345 | 0.0 | 1.6 | 0.00 | 3.76 | 0.00 | 92 | 1011.8 |
| 20260507045144 | 10 | 347 | 0.0 | 1.6 | 0.00 | 3.76 | 0.00 | 92 | 1011.6 |
| 20260507045045 | 9 | 352 | 0.0 | 1.6 | 0.00 | 3.76 | 0.00 | 92 | 1011.7 |
| 20260507044946 | 9 | 353 | 0.0 | 1.6 | 0.00 | 3.76 | 0.00 | 92 | 1011.7 |
| 20260507044845 | 9 | 357 | 0.0 | 1.6 | 0.00 | 3.76 | 0.00 | 92 | 1011.6 |
| 20260507044745 | 9 | 357 | 0.0 | 1.6 | 0.00 | 3.76 | 0.00 | 92 | 1011.7 |
| 20260507044646 | 9 | 357 | 0.0 | 1.6 | 0.00 | 3.76 | 0.00 | 92 | 1011.6 |
| 20260507044546 | 9 | 6 | 0.0 | 3.2 | 0.00 | 3.76 | 0.00 | 92 | 1011.6 |
| 20260507044445 | 9 | 10 | 0.0 | 3.2 | 0.00 | 3.84 | 0.00 | 92 | 1011.7 |
| 20260507044345 | 9 | 10 | 0.0 | 3.2 | 0.00 | 3.84 | 0.00 | 92 | 1011.6 |
| 20260507044244 | 9 | 9 | 1.6 | 3.2 | 0.00 | 3.84 | 0.00 | 92 | 1011.5 |
| 20260507044145 | 9 | 9 | 1.6 | 3.2 | 0.00 | 3.84 | 0.00 | 92 | 1011.5 |
| 20260507044045 | 9 | 15 | 1.6 | 3.2 | 0.00 | 3.84 | 0.00 | 92 | 1011.4 |
| 20260507043945 | 9 | 15 | 1.6 | 3.2 | 0.00 | 3.84 | 0.00 | 92 | 1011.4 |
| 20260507043845 | 9 | 16 | 1.6 | 3.2 | 0.00 | 3.84 | 0.00 | 92 | 1011.5 |
| 20260507043745 | 9 | 17 | 1.6 | 3.2 | 0.00 | 3.84 | 0.00 | 92 | 1011.4 |
| 20260507043644 | 9 | 19 | 1.6 | 3.2 | 0.00 | 3.84 | 0.00 | 92 | 1011.5 |
| 20260507043544 | 9 | 17 | 1.6 | 3.2 | 0.00 | 3.84 | 0.00 | 92 | 1011.4 |
| 20260507043446 | 9 | 15 | 1.6 | 3.2 | 0.00 | 3.84 | 0.00 | 92 | 1011.3 |
| 20260507043346 | 9 | 16 | 1.6 | 3.2 | 0.00 | 3.84 | 0.00 | 92 | 1011.3 |
| 20260507043245 | 9 | 18 | 1.6 | 3.2 | 0.00 | 3.84 | 0.00 | 92 | 1011.2 |
| 20260507043144 | 9 | 18 | 0.0 | 3.2 | 0.00 | 3.84 | 0.00 | 92 | 1011.2 |
| 20260507043044 | 9 | 11 | 0.0 | 3.2 | 0.00 | 3.84 | 0.00 | 92 | 1011.2 |
| 20260507042944 | 9 | 11 | 0.0 | 3.2 | 0.00 | 3.84 | 0.00 | 92 | 1011.1 |
| 20260507042845 | 9 | 9 | 0.0 | 1.6 | 0.00 | 3.84 | 0.00 | 92 | 1011.1 |
| 20260507042745 | 9 | 6 | 0.0 | 1.6 | 0.00 | 3.84 | 0.00 | 92 | 1011.2 |
| 20260507042644 | 9 | 1 | 0.0 | 1.6 | 0.00 | 3.84 | 0.00 | 92 | 1011.2 |
| 20260507042544 | 9 | 355 | 0.0 | 1.6 | 0.00 | 3.84 | 0.00 | 92 | 1011.0 |
| 20260507042444 | 9 | 353 | 0.0 | 0.0 | 0.00 | 3.84 | 0.00 | 92 | 1011.1 |
| 20260507042346 | 9 | 353 | 0.0 | 0.0 | 0.00 | 3.84 | 0.00 | 92 | 1011.1 |
| 20260507042245 | 9 | 353 | 0.0 | 0.0 | 0.00 | 3.84 | 0.00 | 92 | 1011.1 |
| 20260507042145 | 9 | 353 | 0.0 | 0.0 | 0.00 | 3.84 | 0.00 | 92 | 1011.1 |
| 20260507042045 | 9 | 352 | 0.0 | 0.0 | 0.00 | 3.84 | 0.00 | 92 | 1011.1 |
| 20260507041945 | 9 | 350 | 0.0 | 1.6 | 0.00 | 3.84 | 0.00 | 92 | 1011.0 |
| 20260507041844 | 9 | 351 | 0.0 | 1.6 | 0.00 | 3.84 | 0.00 | 92 | 1011.0 |
| 20260507041746 | 9 | 7 | 0.0 | 1.6 | 0.00 | 3.84 | 0.00 | 92 | 1010.9 |
| 20260507041645 | 9 | 21 | 0.0 | 1.6 | 0.00 | 3.84 | 0.00 | 92 | 1011.0 |
| 20260507041545 | 9 | 22 | 0.0 | 1.6 | 0.00 | 3.84 | 0.00 | 92 | 1011.0 |
| 20260507041445 | 9 | 21 | 0.0 | 1.6 | 0.00 | 3.84 | 0.00 | 92 | 1011.0 |
| 20260507041344 | 9 | 22 | 0.0 | 1.6 | 0.00 | 3.84 | 0.00 | 92 | 1011.0 |
| 20260507041244 | 9 | 24 | 0.0 | 1.6 | 0.00 | 3.84 | 0.00 | 92 | 1011.0 |
| 20260507041145 | 9 | 25 | 0.0 | 1.6 | 0.00 | 3.84 | 0.00 | 92 | 1010.9 |
| 20260507041045 | 9 | 27 | 0.0 | 1.6 | 0.00 | 3.84 | 0.00 | 92 | 1010.9 |
| 20260507040945 | 9 | 36 | 0.0 | 1.6 | 0.00 | 3.84 | 0.00 | 92 | 1010.9 |
| 20260507040846 | 9 | 41 | 0.0 | 1.6 | 0.00 | 3.84 | 0.00 | 92 | 1010.9 |
| 20260507040746 | 9 | 15 | 0.0 | 1.6 | 0.00 | 3.84 | 0.00 | 92 | 1010.9 |
| 20260507040645 | 9 | 357 | 0.0 | 1.6 | 0.00 | 3.84 | 0.00 | 92 | 1010.9 |
| 20260507040545 | 9 | 350 | 0.0 | 1.6 | 0.00 | 3.84 | 0.00 | 92 | 1010.9 |
| 20260507040445 | 9 | 350 | 0.0 | 1.6 | 0.00 | 3.84 | 0.00 | 92 | 1010.9 |
| 20260507040345 | 9 | 350 | 0.0 | 1.6 | 0.00 | 3.84 | 0.00 | 92 | 1010.8 |
| 20260507040244 | 9 | 346 | 0.0 | 1.6 | 0.00 | 3.84 | 0.00 | 92 | 1010.9 |
| 20260507040146 | 9 | 335 | 0.0 | 3.2 | 0.00 | 3.84 | 0.00 | 92 | 1010.9 |
| 20260507040046 | 9 | 328 | 0.0 | 3.2 | 0.00 | 3.84 | 0.00 | 92 | 1010.9 |
| 20260507035945 | 9 | 324 | 1.6 | 3.2 | 0.00 | 3.84 | 0.00 | 92 | 1010.8 |
| 20260507035845 | 9 | 320 | 1.6 | 3.2 | 0.00 | 3.84 | 0.00 | 92 | 1010.9 |
| 20260507035745 | 9 | 316 | 1.6 | 3.2 | 0.00 | 3.84 | 0.00 | 92 | 1010.9 |
| 20260507035644 | 9 | 314 | 1.6 | 3.2 | 0.00 | 3.84 | 0.00 | 92 | 1011.0 |
| 20260507035544 | 9 | 314 | 1.6 | 3.2 | 0.00 | 3.84 | 0.00 | 92 | 1010.9 |
| 20260507035444 | 9 | 314 | 1.6 | 3.2 | 0.00 | 3.84 | 0.00 | 92 | 1010.9 |
| 20260507035346 | 9 | 313 | 1.6 | 3.2 | 0.00 | 3.84 | 0.00 | 92 | 1011.0 |
| 20260507035245 | 9 | 310 | 1.6 | 3.2 | 0.00 | 3.84 | 0.00 | 92 | 1010.9 |
| 20260507035145 | 9 | 309 | 1.6 | 3.2 | 0.00 | 3.84 | 0.00 | 92 | 1010.8 |
| 20260507035046 | 9 | 310 | 0.0 | 3.2 | 0.00 | 3.84 | 0.00 | 92 | 1010.9 |
| 20260507034946 | 9 | 310 | 0.0 | 3.2 | 0.00 | 3.84 | 0.00 | 92 | 1010.9 |
| 20260507034845 | 9 | 310 | 0.0 | 3.2 | 0.00 | 3.84 | 0.00 | 92 | 1010.9 |
| 20260507034745 | 9 | 309 | 0.0 | 3.2 | 0.00 | 3.84 | 0.00 | 92 | 1010.8 |
| 20260507034646 | 9 | 308 | 0.0 | 3.2 | 0.00 | 3.84 | 0.00 | 92 | 1010.7 |
| 20260507034546 | 9 | 306 | 0.0 | 3.2 | 0.00 | 3.84 | 0.00 | 92 | 1010.9 |
| 20260507034445 | 9 | 304 | 1.6 | 3.2 | 0.00 | 3.84 | 0.00 | 92 | 1010.9 |
| 20260507034345 | 9 | 307 | 1.6 | 3.2 | 0.00 | 3.84 | 0.00 | 92 | 1010.9 |
| 20260507034245 | 9 | 309 | 1.6 | 4.8 | 0.00 | 3.84 | 0.00 | 92 | 1010.9 |
| 20260507034145 | 9 | 308 | 1.6 | 4.8 | 0.00 | 3.84 | 0.00 | 92 | 1010.9 |
| 20260507034045 | 9 | 305 | 1.6 | 4.8 | 0.00 | 3.84 | 0.00 | 92 | 1010.9 |
| 20260507033945 | 9 | 301 | 3.2 | 4.8 | 0.00 | 3.84 | 0.00 | 92 | 1010.9 |
| 20260507033844 | 9 | 298 | 3.2 | 4.8 | 0.00 | 3.84 | 0.00 | 92 | 1010.9 |
| 20260507033744 | 9 | 294 | 3.2 | 4.8 | 0.00 | 3.84 | 0.00 | 92 | 1010.9 |
| 20260507033645 | 9 | 291 | 3.2 | 4.8 | 0.00 | 3.84 | 0.00 | 92 | 1010.9 |
| 20260507033545 | 9 | 289 | 3.2 | 4.8 | 0.00 | 3.84 | 0.00 | 92 | 1010.9 |
| 20260507033445 | 9 | 288 | 3.2 | 4.8 | 0.00 | 3.84 | 0.00 | 92 | 1010.9 |
| 20260507033344 | 9 | 286 | 3.2 | 4.8 | 0.00 | 3.84 | 0.00 | 92 | 1010.9 |
| 20260507033246 | 9 | 281 | 1.6 | 4.8 | 0.00 | 3.84 | 0.00 | 92 | 1010.9 |
| 20260507033145 | 9 | 281 | 1.6 | 4.8 | 0.00 | 3.84 | 0.00 | 92 | 1011.0 |
| 20260507033045 | 9 | 283 | 1.6 | 4.8 | 0.00 | 3.84 | 0.00 | 92 | 1010.9 |
| 20260507032945 | 9 | 286 | 1.6 | 4.8 | 0.00 | 3.84 | 0.00 | 92 | 1010.8 |
| 20260507032846 | 9 | 291 | 1.6 | 4.8 | 0.00 | 3.84 | 0.00 | 92 | 1010.9 |
| 20260507032746 | 9 | 293 | 1.6 | 4.8 | 0.00 | 3.84 | 0.00 | 92 | 1010.8 |
| 20260507032645 | 9 | 300 | 1.6 | 4.8 | 0.00 | 3.84 | 0.00 | 92 | 1010.8 |
| 20260507032545 | 9 | 311 | 0.0 | 3.2 | 0.00 | 3.84 | 0.00 | 92 | 1010.8 |
| 20260507032445 | 9 | 320 | 0.0 | 3.2 | 0.00 | 3.84 | 0.00 | 92 | 1010.8 |
| 20260507032344 | 9 | 326 | 0.0 | 1.6 | 0.00 | 3.84 | 0.00 | 92 | 1010.8 |
| 20260507032246 | 9 | 326 | 0.0 | 1.6 | 0.00 | 3.84 | 0.00 | 92 | 1010.9 |
| 20260507032145 | 9 | 326 | 0.0 | 1.6 | 0.00 | 3.84 | 0.00 | 92 | 1010.9 |
| 20260507032045 | 9 | 326 | 0.0 | 3.2 | 0.00 | 3.84 | 0.00 | 92 | 1010.8 |
| 20260507031945 | 9 | 326 | 0.0 | 3.2 | 0.00 | 3.84 | 0.00 | 92 | 1010.8 |
| 20260507031844 | 9 | 326 | 0.0 | 3.2 | 0.00 | 3.84 | 0.00 | 92 | 1010.8 |
| 20260507031746 | 9 | 326 | 0.0 | 3.2 | 0.00 | 3.84 | 0.00 | 92 | 1010.8 |
| 20260507031645 | 10 | 328 | 0.0 | 3.2 | 0.00 | 3.84 | 0.00 | 92 | 1010.7 |
| 20260507031545 | 10 | 330 | 1.6 | 3.2 | 0.00 | 3.84 | 0.00 | 92 | 1010.8 |
| 20260507031445 | 10 | 332 | 1.6 | 3.2 | 0.00 | 3.84 | 0.00 | 92 | 1010.8 |
| 20260507031344 | 10 | 332 | 1.6 | 3.2 | 0.00 | 3.84 | 0.00 | 92 | 1010.8 |
| 20260507031244 | 10 | 334 | 1.6 | 3.2 | 0.00 | 3.84 | 0.00 | 92 | 1010.8 |
| 20260507031145 | 10 | 337 | 1.6 | 3.2 | 0.00 | 3.84 | 0.00 | 92 | 1010.8 |
| 20260507031046 | 10 | 343 | 1.6 | 3.2 | 0.00 | 3.84 | 0.00 | 92 | 1010.8 |
| 20260507030945 | 10 | 348 | 1.6 | 3.2 | 0.00 | 3.84 | 0.00 | 92 | 1010.8 |
| 20260507030845 | 10 | 352 | 1.6 | 3.2 | 0.00 | 3.84 | 0.00 | 92 | 1010.7 |
| 20260507030745 | 10 | 353 | 1.6 | 3.2 | 0.00 | 3.84 | 0.00 | 92 | 1010.7 |
| 20260507030645 | 10 | 355 | 1.6 | 3.2 | 0.00 | 3.84 | 0.00 | 92 | 1010.7 |
| 20260507030544 | 10 | 355 | 0.0 | 3.2 | 0.00 | 3.84 | 0.00 | 92 | 1010.8 |
| 20260507030444 | 10 | 354 | 0.0 | 3.2 | 0.00 | 3.84 | 0.00 | 92 | 1010.8 |
| 20260507030344 | 10 | 353 | 1.6 | 3.2 | 0.00 | 3.84 | 0.00 | 92 | 1010.7 |
| 20260507030246 | 10 | 352 | 1.6 | 3.2 | 0.00 | 3.84 | 0.00 | 92 | 1010.7 |
| 20260507030145 | 10 | 348 | 1.6 | 3.2 | 0.00 | 3.84 | 0.00 | 92 | 1010.8 |
| 20260507030045 | 10 | 345 | 1.6 | 3.2 | 0.00 | 3.84 | 0.00 | 92 | 1010.7 |
| 20260507025945 | 10 | 341 | 1.6 | 3.2 | 0.00 | 3.84 | 0.00 | 92 | 1010.8 |
| 20260507025844 | 10 | 339 | 1.6 | 3.2 | 0.00 | 3.84 | 0.00 | 92 | 1010.8 |
| 20260507025744 | 10 | 338 | 1.6 | 3.2 | 0.00 | 3.84 | 0.00 | 92 | 1010.8 |
| 20260507025646 | 10 | 337 | 1.6 | 3.2 | 0.00 | 3.84 | 0.00 | 92 | 1010.8 |
| 20260507025546 | 10 | 334 | 1.6 | 3.2 | 0.00 | 3.84 | 0.00 | 92 | 1010.8 |
| 20260507025446 | 10 | 337 | 3.2 | 4.8 | 0.00 | 3.84 | 0.00 | 92 | 1010.8 |
| 20260507025345 | 10 | 339 | 3.2 | 6.4 | 0.00 | 3.84 | 0.00 | 92 | 1010.8 |
| 20260507025244 | 10 | 342 | 3.2 | 9.7 | 0.00 | 3.84 | 0.00 | 92 | 1010.8 |
| 20260507025144 | 10 | 342 | 3.2 | 9.7 | 0.00 | 3.84 | 0.00 | 92 | 1010.7 |
| 20260507025046 | 10 | 342 | 3.2 | 9.7 | 0.00 | 3.84 | 0.00 | 92 | 1010.7 |
| 20260507024946 | 10 | 343 | 4.8 | 9.7 | 0.00 | 3.84 | 0.00 | 92 | 1010.8 |
| 20260507024846 | 10 | 343 | 4.8 | 9.7 | 0.00 | 3.84 | 0.00 | 92 | 1010.8 |
| 20260507024745 | 10 | 342 | 4.8 | 9.7 | 0.00 | 3.84 | 0.00 | 92 | 1010.7 |
| 20260507024644 | 10 | 342 | 4.8 | 9.7 | 0.00 | 3.84 | 0.00 | 92 | 1010.7 |
| 20260507024544 | 10 | 342 | 4.8 | 9.7 | 0.00 | 3.84 | 0.00 | 92 | 1010.7 |
| 20260507024446 | 10 | 340 | 4.8 | 9.7 | 0.00 | 3.84 | 0.00 | 92 | 1010.7 |
| 20260507024345 | 10 | 338 | 4.8 | 9.7 | 0.00 | 3.84 | 0.00 | 92 | 1010.7 |
| 20260507024245 | 10 | 335 | 4.8 | 9.7 | 0.00 | 3.84 | 0.00 | 92 | 1010.7 |
| 20260507024145 | 10 | 333 | 4.8 | 9.7 | 0.00 | 3.84 | 0.00 | 92 | 1010.7 |
| 20260507024045 | 10 | 331 | 4.8 | 9.7 | 0.00 | 3.84 | 0.00 | 92 | 1010.7 |
| 20260507023945 | 10 | 329 | 3.2 | 9.7 | 0.00 | 3.84 | 0.00 | 92 | 1010.8 |
| 20260507023844 | 10 | 326 | 3.2 | 6.4 | 0.00 | 3.84 | 0.00 | 92 | 1010.8 |
| 20260507023744 | 10 | 323 | 3.2 | 6.4 | 0.00 | 3.84 | 0.00 | 92 | 1010.8 |
| 20260507023644 | 10 | 321 | 3.2 | 4.8 | 0.00 | 3.84 | 0.00 | 92 | 1010.7 |
| 20260507023546 | 10 | 317 | 1.6 | 4.8 | 0.00 | 3.84 | 0.00 | 92 | 1010.8 |
| 20260507023446 | 10 | 314 | 1.6 | 3.2 | 0.00 | 3.84 | 0.00 | 92 | 1010.8 |
| 20260507023345 | 10 | 314 | 1.6 | 3.2 | 0.00 | 3.84 | 0.00 | 92 | 1010.8 |
| 20260507023245 | 10 | 313 | 1.6 | 3.2 | 0.00 | 3.84 | 0.00 | 92 | 1010.8 |
| 20260507023144 | 10 | 315 | 1.6 | 3.2 | 0.00 | 3.84 | 0.00 | 92 | 1010.8 |
| 20260507023044 | 10 | 316 | 1.6 | 3.2 | 0.00 | 3.84 | 0.00 | 92 | 1010.7 |
| 20260507022944 | 10 | 318 | 1.6 | 3.2 | 0.00 | 3.84 | 0.00 | 92 | 1010.7 |
| 20260507022845 | 10 | 318 | 1.6 | 4.8 | 0.00 | 3.84 | 0.00 | 92 | 1010.7 |
| 20260507022745 | 10 | 320 | 1.6 | 6.4 | 0.00 | 3.84 | 0.00 | 92 | 1010.7 |
| 20260507022644 | 10 | 321 | 1.6 | 6.4 | 0.00 | 3.84 | 0.00 | 92 | 1010.7 |
| 20260507022544 | 10 | 321 | 1.6 | 6.4 | 0.00 | 3.84 | 0.00 | 92 | 1010.7 |
| 20260507022446 | 10 | 322 | 3.2 | 6.4 | 0.00 | 3.84 | 0.00 | 92 | 1010.6 |
| 20260507022345 | 10 | 322 | 3.2 | 6.4 | 0.00 | 3.84 | 0.00 | 92 | 1010.7 |
| 20260507022244 | 10 | 322 | 3.2 | 6.4 | 0.00 | 3.84 | 0.00 | 92 | 1010.8 |
| 20260507022144 | 10 | 323 | 4.8 | 6.4 | 0.00 | 3.84 | 0.00 | 92 | 1010.7 |
| 20260507022046 | 10 | 324 | 4.8 | 6.4 | 0.00 | 3.84 | 0.00 | 92 | 1010.7 |
| 20260507021946 | 10 | 325 | 4.8 | 6.4 | 0.00 | 3.84 | 0.00 | 92 | 1010.7 |
| 20260507021845 | 10 | 327 | 4.8 | 6.4 | 0.00 | 3.84 | 0.00 | 92 | 1010.6 |
| 20260507021745 | 10 | 329 | 4.8 | 6.4 | 0.00 | 3.84 | 0.00 | 92 | 1010.7 |
| 20260507021644 | 10 | 332 | 4.8 | 6.4 | 0.00 | 3.84 | 0.00 | 92 | 1010.7 |
| 20260507021544 | 10 | 333 | 3.2 | 6.4 | 0.00 | 3.84 | 0.00 | 92 | 1010.6 |
| 20260507021444 | 10 | 335 | 3.2 | 6.4 | 0.00 | 3.84 | 0.00 | 92 | 1010.6 |
| 20260507021344 | 10 | 337 | 3.2 | 4.8 | 0.00 | 3.84 | 0.00 | 92 | 1010.7 |
| 20260507021245 | 10 | 339 | 3.2 | 4.8 | 0.00 | 3.84 | 0.00 | 92 | 1010.6 |
| 20260507021145 | 10 | 341 | 3.2 | 4.8 | 0.00 | 3.84 | 0.00 | 92 | 1010.7 |
| 20260507021045 | 10 | 343 | 3.2 | 4.8 | 0.00 | 3.84 | 0.00 | 92 | 1010.7 |
| 20260507020945 | 10 | 342 | 3.2 | 4.8 | 0.00 | 3.84 | 0.00 | 92 | 1010.7 |
| 20260507020844 | 10 | 345 | 3.2 | 6.4 | 0.00 | 3.84 | 0.00 | 92 | 1010.7 |
| 20260507020744 | 10 | 345 | 3.2 | 6.4 | 0.00 | 3.84 | 0.00 | 92 | 1010.6 |
| 20260507020646 | 10 | 345 | 3.2 | 6.4 | 0.00 | 3.84 | 0.00 | 92 | 1010.7 |
| 20260507020545 | 10 | 346 | 4.8 | 6.4 | 0.00 | 3.84 | 0.00 | 92 | 1010.7 |
| 20260507020445 | 10 | 347 | 4.8 | 6.4 | 0.00 | 3.84 | 0.00 | 92 | 1010.7 |
| 20260507020345 | 10 | 347 | 4.8 | 6.4 | 0.00 | 3.84 | 0.00 | 92 | 1010.7 |
| 20260507020244 | 10 | 348 | 4.8 | 6.4 | 0.00 | 3.84 | 0.00 | 92 | 1010.6 |
| 20260507020144 | 10 | 348 | 4.8 | 6.4 | 0.00 | 3.84 | 0.00 | 92 | 1010.6 |
| 20260507020044 | 10 | 347 | 4.8 | 6.4 | 0.00 | 3.84 | 0.00 | 92 | 1010.6 |
| 20260507015945 | 10 | 346 | 4.8 | 6.4 | 0.00 | 3.84 | 0.00 | 92 | 1010.7 |
| 20260507015844 | 10 | 345 | 4.8 | 6.4 | 0.00 | 3.84 | 0.00 | 92 | 1010.7 |
| 20260507015744 | 10 | 343 | 4.8 | 6.4 | 0.00 | 3.84 | 0.00 | 92 | 1010.7 |
| 20260507015644 | 10 | 340 | 4.8 | 6.4 | 0.00 | 3.84 | 0.00 | 92 | 1010.6 |
| 20260507015546 | 10 | 337 | 4.8 | 6.4 | 0.00 | 3.84 | 0.00 | 92 | 1010.8 |
| 20260507015444 | 10 | 333 | 3.2 | 6.4 | 0.00 | 3.84 | 0.00 | 92 | 1010.7 |
| 20260507015345 | 10 | 330 | 3.2 | 6.4 | 0.00 | 3.84 | 0.00 | 92 | 1010.7 |
| 20260507015245 | 10 | 327 | 3.2 | 6.4 | 0.00 | 3.84 | 0.00 | 92 | 1010.7 |
| 20260507015144 | 10 | 326 | 3.2 | 6.4 | 0.00 | 3.84 | 0.00 | 92 | 1010.6 |
| 20260507015045 | 10 | 326 | 3.2 | 6.4 | 0.00 | 3.84 | 0.00 | 92 | 1010.6 |
| 20260507014945 | 10 | 327 | 3.2 | 6.4 | 0.00 | 3.84 | 0.00 | 92 | 1010.7 |
| 20260507014844 | 10 | 323 | 1.6 | 6.4 | 0.00 | 3.84 | 0.00 | 92 | 1010.7 |
| 20260507014744 | 10 | 324 | 1.6 | 4.8 | 0.00 | 3.84 | 0.00 | 92 | 1010.6 |
| 20260507014645 | 10 | 323 | 1.6 | 4.8 | 0.00 | 3.84 | 0.00 | 92 | 1010.6 |
| 20260507014545 | 10 | 326 | 1.6 | 4.8 | 0.00 | 3.84 | 0.00 | 92 | 1010.6 |
| 20260507014445 | 10 | 334 | 1.6 | 4.8 | 0.00 | 3.84 | 0.00 | 92 | 1010.5 |
| 20260507014345 | 10 | 343 | 0.0 | 3.2 | 0.00 | 3.84 | 0.00 | 92 | 1010.7 |
| 20260507014245 | 10 | 352 | 0.0 | 4.8 | 0.00 | 3.84 | 0.00 | 92 | 1010.6 |
| 20260507014144 | 10 | 349 | 1.6 | 6.4 | 0.00 | 3.84 | 0.00 | 92 | 1010.6 |
| 20260507014044 | 10 | 348 | 1.6 | 9.7 | 0.00 | 3.84 | 0.00 | 92 | 1010.6 |
| 20260507013944 | 10 | 347 | 1.6 | 9.7 | 0.00 | 3.84 | 0.00 | 92 | 1010.5 |
| 20260507013845 | 10 | 346 | 3.2 | 9.7 | 0.00 | 3.84 | 0.00 | 92 | 1010.5 |
| 20260507013744 | 10 | 347 | 3.2 | 9.7 | 0.00 | 3.84 | 0.00 | 92 | 1010.5 |
| 20260507013644 | 10 | 346 | 3.2 | 9.7 | 0.00 | 3.84 | 0.00 | 92 | 1010.6 |
| 20260507013544 | 10 | 345 | 4.8 | 9.7 | 0.00 | 3.84 | 0.00 | 92 | 1010.5 |
| 20260507013444 | 10 | 345 | 4.8 | 9.7 | 0.00 | 3.84 | 0.00 | 92 | 1010.5 |
| 20260507013345 | 10 | 343 | 4.8 | 9.7 | 0.00 | 3.84 | 0.00 | 92 | 1010.5 |
| 20260507013245 | 10 | 341 | 4.8 | 9.7 | 0.00 | 3.84 | 0.00 | 92 | 1010.5 |
| 20260507013144 | 10 | 339 | 4.8 | 9.7 | 0.00 | 3.84 | 0.00 | 92 | 1010.5 |
| 20260507013044 | 10 | 337 | 4.8 | 9.7 | 0.00 | 3.84 | 0.00 | 92 | 1010.4 |
| 20260507012944 | 10 | 334 | 4.8 | 9.7 | 0.00 | 3.84 | 0.00 | 92 | 1010.4 |
| 20260507012845 | 10 | 332 | 4.8 | 6.4 | 0.00 | 3.84 | 0.00 | 92 | 1010.5 |
| 20260507012745 | 10 | 329 | 3.2 | 6.4 | 0.00 | 3.84 | 0.00 | 92 | 1010.5 |
| 20260507012645 | 10 | 326 | 3.2 | 6.4 | 0.00 | 3.84 | 0.00 | 92 | 1010.4 |
| 20260507012545 | 10 | 324 | 3.2 | 6.4 | 0.00 | 3.84 | 0.00 | 92 | 1010.4 |
| 20260507012445 | 10 | 320 | 3.2 | 6.4 | 0.00 | 3.84 | 0.00 | 92 | 1010.4 |
| 20260507012344 | 10 | 320 | 3.2 | 6.4 | 0.00 | 3.84 | 0.00 | 92 | 1010.4 |
| 20260507012245 | 10 | 319 | 3.2 | 6.4 | 0.00 | 3.84 | 0.00 | 92 | 1010.4 |
| 20260507012145 | 10 | 317 | 1.6 | 6.4 | 0.00 | 3.84 | 0.00 | 91 | 1010.4 |
| 20260507012045 | 10 | 317 | 1.6 | 4.8 | 0.00 | 3.84 | 0.00 | 91 | 1010.4 |
| 20260507011945 | 10 | 319 | 1.6 | 4.8 | 0.00 | 3.84 | 0.00 | 92 | 1010.4 |
| 20260507011844 | 10 | 322 | 1.6 | 4.8 | 0.00 | 3.84 | 0.00 | 92 | 1010.3 |
| 20260507011744 | 10 | 326 | 1.6 | 4.8 | 0.00 | 3.84 | 0.00 | 92 | 1010.4 |
| 20260507011646 | 10 | 327 | 3.2 | 4.8 | 0.00 | 3.84 | 0.00 | 92 | 1010.4 |
| 20260507011545 | 10 | 331 | 3.2 | 4.8 | 0.00 | 3.84 | 0.00 | 92 | 1010.3 |
| 20260507011445 | 10 | 333 | 3.2 | 4.8 | 0.00 | 3.84 | 0.00 | 92 | 1010.4 |
| 20260507011345 | 10 | 334 | 3.2 | 4.8 | 0.00 | 3.84 | 0.00 | 92 | 1010.4 |
| 20260507011244 | 10 | 334 | 3.2 | 6.4 | 0.00 | 3.84 | 0.00 | 92 | 1010.3 |
| 20260507011144 | 10 | 335 | 3.2 | 6.4 | 0.00 | 3.84 | 0.00 | 91 | 1010.4 |
| 20260507011044 | 10 | 334 | 4.8 | 6.4 | 0.00 | 3.84 | 0.00 | 91 | 1010.4 |
| 20260507010946 | 10 | 333 | 4.8 | 6.4 | 0.00 | 3.84 | 0.00 | 92 | 1010.3 |
| 20260507010845 | 10 | 332 | 4.8 | 6.4 | 0.00 | 3.84 | 0.00 | 91 | 1010.3 |
| 20260507010745 | 10 | 330 | 4.8 | 6.4 | 0.00 | 3.84 | 0.00 | 91 | 1010.5 |
| 20260507010645 | 10 | 329 | 4.8 | 6.4 | 0.00 | 3.84 | 0.00 | 91 | 1010.3 |
| 20260507010544 | 10 | 326 | 4.8 | 6.4 | 0.00 | 3.84 | 0.00 | 92 | 1010.3 |
| 20260507010444 | 10 | 324 | 4.8 | 6.4 | 0.00 | 3.84 | 0.00 | 92 | 1010.4 |
| 20260507010345 | 10 | 322 | 4.8 | 6.4 | 0.00 | 3.84 | 0.00 | 92 | 1010.4 |
| 20260507010246 | 10 | 320 | 4.8 | 6.4 | 0.00 | 3.84 | 0.00 | 92 | 1010.3 |
| 20260507010145 | 10 | 317 | 3.2 | 6.4 | 0.00 | 3.84 | 0.00 | 91 | 1010.3 |
| 20260507010045 | 10 | 315 | 3.2 | 6.4 | 0.00 | 3.84 | 0.00 | 92 | 1010.3 |
| 20260507005945 | 11 | 313 | 3.2 | 6.4 | 0.00 | 3.84 | 0.00 | 92 | 1010.4 |
| 20260507005844 | 11 | 311 | 3.2 | 6.4 | 0.00 | 3.84 | 0.00 | 92 | 1010.3 |
| 20260507005744 | 11 | 309 | 3.2 | 6.4 | 0.00 | 3.84 | 0.00 | 91 | 1010.3 |
| 20260507005644 | 11 | 308 | 3.2 | 6.4 | 0.00 | 3.84 | 0.00 | 91 | 1010.4 |
| 20260507005544 | 11 | 308 | 3.2 | 6.4 | 0.00 | 3.84 | 0.00 | 91 | 1010.3 |
| 20260507005444 | 11 | 307 | 3.2 | 6.4 | 0.00 | 3.84 | 0.00 | 91 | 1010.3 |
| 20260507005345 | 11 | 306 | 3.2 | 6.4 | 0.00 | 3.84 | 0.00 | 91 | 1010.2 |
| 20260507005245 | 11 | 305 | 3.2 | 4.8 | 0.00 | 3.84 | 0.00 | 92 | 1010.2 |
| 20260507005144 | 11 | 307 | 3.2 | 4.8 | 0.00 | 3.84 | 0.00 | 91 | 1010.1 |
| 20260507005045 | 11 | 307 | 3.2 | 4.8 | 0.00 | 3.84 | 0.00 | 91 | 1010.2 |
| 20260507004945 | 11 | 307 | 3.2 | 4.8 | 0.00 | 3.84 | 0.00 | 91 | 1010.2 |
| 20260507004845 | 11 | 307 | 3.2 | 4.8 | 0.00 | 3.84 | 0.00 | 91 | 1010.2 |
| 20260507004744 | 11 | 307 | 1.6 | 4.8 | 0.00 | 3.84 | 0.00 | 91 | 1010.1 |
| 20260507004646 | 11 | 308 | 1.6 | 4.8 | 0.00 | 3.84 | 0.00 | 91 | 1010.1 |
| 20260507004546 | 11 | 307 | 1.6 | 4.8 | 0.00 | 3.84 | 0.00 | 91 | 1010.0 |
| 20260507004445 | 11 | 308 | 1.6 | 4.8 | 0.00 | 3.84 | 0.00 | 91 | 1010.0 |
| 20260507004344 | 11 | 310 | 1.6 | 4.8 | 0.00 | 3.84 | 0.00 | 91 | 1010.1 |
| 20260507004244 | 11 | 313 | 1.6 | 4.8 | 0.00 | 3.84 | 0.00 | 91 | 1010.1 |
| 20260507004145 | 11 | 311 | 1.6 | 4.8 | 0.00 | 3.84 | 0.00 | 91 | 1010.1 |
| 20260507004045 | 11 | 312 | 0.0 | 1.6 | 0.00 | 3.84 | 0.00 | 92 | 1010.1 |
| 20260507003945 | 11 | 314 | 0.0 | 1.6 | 0.00 | 3.84 | 0.00 | 91 | 1010.1 |
| 20260507003844 | 11 | 316 | 0.0 | 1.6 | 0.00 | 3.84 | 0.00 | 91 | 1010.0 |
| 20260507003744 | 11 | 318 | 0.0 | 1.6 | 0.00 | 3.84 | 0.00 | 92 | 1010.0 |
| 20260507003644 | 11 | 322 | 1.6 | 3.2 | 0.00 | 3.84 | 0.00 | 92 | 1010.0 |
| 20260507003546 | 11 | 327 | 1.6 | 3.2 | 0.00 | 3.84 | 0.00 | 92 | 1010.1 |
| 20260507003446 | 11 | 334 | 1.6 | 4.8 | 0.00 | 3.84 | 0.00 | 91 | 1010.0 |
| 20260507003346 | 11 | 336 | 1.6 | 4.8 | 0.00 | 3.84 | 0.00 | 91 | 1010.2 |
| 20260507003244 | 11 | 339 | 1.6 | 4.8 | 0.00 | 3.84 | 0.00 | 91 | 1010.1 |
| 20260507003146 | 11 | 339 | 1.6 | 4.8 | 0.00 | 3.84 | 0.00 | 91 | 1010.1 |
| 20260507003045 | 11 | 338 | 1.6 | 4.8 | 0.00 | 3.84 | 0.00 | 91 | 1010.1 |
| 20260507002944 | 11 | 340 | 1.6 | 4.8 | 0.00 | 3.84 | 0.00 | 91 | 1010.1 |
| 20260507002844 | 11 | 341 | 3.2 | 4.8 | 0.00 | 3.84 | 0.00 | 91 | 1010.1 |
| 20260507002746 | 11 | 342 | 3.2 | 4.8 | 0.00 | 3.84 | 0.00 | 91 | 1010.0 |
| 20260507002645 | 11 | 344 | 3.2 | 4.8 | 0.00 | 3.84 | 0.00 | 91 | 1010.2 |
| 20260507002545 | 11 | 344 | 1.6 | 4.8 | 0.00 | 3.84 | 0.00 | 91 | 1010.1 |
| 20260507002445 | 11 | 340 | 1.6 | 4.8 | 0.00 | 3.84 | 0.00 | 91 | 1010.1 |
| 20260507002344 | 11 | 338 | 1.6 | 4.8 | 0.00 | 3.84 | 0.00 | 91 | 1010.1 |
| 20260507002244 | 11 | 335 | 1.6 | 3.2 | 0.00 | 3.84 | 0.00 | 91 | 1010.2 |
| 20260507002146 | 11 | 335 | 1.6 | 3.2 | 0.00 | 3.84 | 0.00 | 91 | 1010.1 |
| 20260507002045 | 11 | 334 | 1.6 | 3.2 | 0.00 | 3.84 | 0.00 | 91 | 1010.2 |
| 20260507001945 | 11 | 331 | 3.2 | 4.8 | 0.00 | 3.84 | 0.00 | 91 | 1010.2 |
| 20260507001845 | 11 | 329 | 3.2 | 4.8 | 0.00 | 3.84 | 0.00 | 91 | 1010.2 |
| 20260507001744 | 11 | 326 | 3.2 | 4.8 | 0.00 | 3.84 | 0.00 | 91 | 1010.2 |
| 20260507001644 | 11 | 324 | 3.2 | 4.8 | 0.00 | 3.84 | 0.00 | 91 | 1010.2 |
| 20260507001544 | 11 | 324 | 3.2 | 4.8 | 0.00 | 3.84 | 0.00 | 91 | 1010.2 |
| 20260507001445 | 11 | 325 | 3.2 | 4.8 | 0.00 | 3.84 | 0.00 | 91 | 1010.3 |
| 20260507001344 | 11 | 326 | 3.2 | 4.8 | 0.00 | 3.84 | 0.00 | 91 | 1010.1 |
| 20260507001244 | 11 | 327 | 1.6 | 4.8 | 0.00 | 3.84 | 0.00 | 91 | 1010.1 |
| 20260507001146 | 11 | 327 | 1.6 | 4.8 | 0.00 | 3.84 | 0.00 | 91 | 1010.1 |
| 20260507001045 | 11 | 327 | 1.6 | 4.8 | 0.00 | 3.84 | 0.00 | 91 | 1010.1 |
| 20260507000945 | 11 | 329 | 1.6 | 4.8 | 0.00 | 3.84 | 0.00 | 91 | 1010.1 |
| 20260507000844 | 11 | 331 | 1.6 | 3.2 | 0.00 | 3.84 | 0.00 | 91 | 1010.1 |
| 20260507000744 | 11 | 334 | 1.6 | 3.2 | 0.00 | 3.84 | 0.00 | 91 | 1010.2 |
| 20260507000645 | 11 | 336 | 0.0 | 3.2 | 0.00 | 3.84 | 0.00 | 91 | 1010.2 |
| 20260507000545 | 11 | 338 | 0.0 | 1.6 | 0.00 | 3.84 | 0.00 | 91 | 1010.1 |
| 20260507000445 | 11 | 337 | 0.0 | 1.6 | 0.00 | 3.84 | 0.00 | 91 | 1010.2 |
| 20260507000345 | 11 | 337 | 0.0 | 1.6 | 0.00 | 3.84 | 0.00 | 91 | 1010.1 |
| 20260507000245 | 11 | 337 | 0.0 | 1.6 | 0.00 | 3.84 | 0.00 | 91 | 1010.1 |
| 20260507000144 | 11 | 337 | 0.0 | 1.6 | 0.00 | 3.84 | 0.00 | 91 | 1010.1 |
| 20260507000044 | 11 | 337 | 0.0 | 1.6 | 0.00 | 3.84 | 0.00 | 91 | 1010.1 |
| 20260506235945 | 11 | 337 | 0.0 | 1.6 | 0.00 | 3.84 | 0.00 | 91 | 1010.1 |
| 20260506235845 | 11 | 337 | 0.0 | 1.6 | 0.00 | 3.84 | 0.00 | 91 | 1010.2 |
| 20260506235745 | 11 | 338 | 0.0 | 1.6 | 0.00 | 3.84 | 0.00 | 91 | 1010.1 |
| 20260506235645 | 11 | 338 | 0.0 | 1.6 | 0.00 | 3.84 | 0.00 | 91 | 1010.1 |
| 20260506235545 | 11 | 338 | 0.0 | 1.6 | 0.00 | 3.84 | 0.00 | 91 | 1010.1 |
| 20260506235445 | 11 | 338 | 0.0 | 1.6 | 0.00 | 3.84 | 0.00 | 91 | 1010.1 |
| 20260506235344 | 11 | 338 | 0.0 | 1.6 | 0.00 | 3.84 | 0.00 | 91 | 1010.1 |
| 20260506235245 | 11 | 338 | 0.0 | 1.6 | 0.00 | 3.84 | 0.00 | 91 | 1010.2 |
| 20260506235145 | 11 | 338 | 0.0 | 1.6 | 0.00 | 3.84 | 0.00 | 91 | 1010.1 |
| 20260506235045 | 11 | 338 | 0.0 | 1.6 | 0.00 | 3.84 | 0.00 | 91 | 1010.0 |
| 20260506234945 | 11 | 338 | 0.0 | 1.6 | 0.00 | 3.84 | 0.00 | 91 | 1010.1 |
| 20260506234844 | 11 | 338 | 0.0 | 1.6 | 0.00 | 3.84 | 0.00 | 91 | 1010.1 |
| 20260506234744 | 11 | 338 | 0.0 | 1.6 | 0.00 | 3.84 | 0.00 | 91 | 1010.1 |
| 20260506234646 | 11 | 337 | 0.0 | 0.0 | 0.00 | 3.84 | 0.00 | 91 | 1010.1 |
| 20260506234545 | 11 | 338 | 0.0 | 1.6 | 0.00 | 3.84 | 0.00 | 91 | 1010.2 |
| 20260506234444 | 11 | 337 | 0.0 | 3.2 | 0.00 | 3.84 | 0.00 | 91 | 1010.1 |
| 20260506234344 | 11 | 338 | 0.0 | 3.2 | 0.00 | 3.84 | 0.00 | 91 | 1010.2 |
| 20260506234246 | 11 | 337 | 0.0 | 3.2 | 0.00 | 3.84 | 0.00 | 91 | 1010.2 |
| 20260506234145 | 11 | 337 | 1.6 | 4.8 | 0.00 | 3.84 | 0.00 | 91 | 1010.1 |
| 20260506234045 | 11 | 336 | 1.6 | 4.8 | 0.00 | 3.84 | 0.00 | 91 | 1010.1 |
| 20260506233945 | 11 | 336 | 1.6 | 4.8 | 0.00 | 3.84 | 0.00 | 91 | 1010.1 |
| 20260506233844 | 11 | 337 | 1.6 | 4.8 | 0.00 | 3.84 | 0.00 | 91 | 1010.0 |
| 20260506233744 | 11 | 335 | 3.2 | 4.8 | 0.00 | 3.84 | 0.00 | 91 | 1010.1 |
| 20260506233644 | 11 | 335 | 3.2 | 4.8 | 0.00 | 3.84 | 0.00 | 91 | 1010.1 |
| 20260506233546 | 11 | 336 | 3.2 | 4.8 | 0.00 | 3.84 | 0.00 | 91 | 1010.0 |
| 20260506233446 | 11 | 338 | 3.2 | 4.8 | 0.00 | 3.84 | 0.00 | 91 | 1010.1 |
| 20260506233346 | 11 | 339 | 3.2 | 4.8 | 0.00 | 3.84 | 0.00 | 91 | 1010.1 |
| 20260506233244 | 11 | 340 | 3.2 | 4.8 | 0.00 | 3.84 | 0.00 | 91 | 1010.0 |
| 20260506233145 | 11 | 341 | 3.2 | 4.8 | 0.00 | 3.84 | 0.00 | 91 | 1010.1 |
| 20260506233045 | 11 | 342 | 3.2 | 4.8 | 0.00 | 3.84 | 0.00 | 91 | 1010.0 |
| 20260506232945 | 11 | 341 | 3.2 | 6.4 | 0.00 | 3.84 | 0.00 | 91 | 1010.0 |
| 20260506232844 | 11 | 341 | 3.2 | 9.7 | 0.00 | 3.84 | 0.00 | 91 | 1010.1 |
| 20260506232745 | 11 | 343 | 3.2 | 9.7 | 0.00 | 3.84 | 0.00 | 91 | 1010.1 |
| 20260506232645 | 11 | 341 | 4.8 | 9.7 | 0.00 | 3.84 | 0.00 | 91 | 1010.1 |
| 20260506232545 | 11 | 341 | 4.8 | 9.7 | 0.00 | 3.84 | 0.00 | 91 | 1010.0 |
| 20260506232445 | 11 | 339 | 4.8 | 9.7 | 0.00 | 3.84 | 0.00 | 91 | 1010.1 |
| 20260506232344 | 11 | 338 | 4.8 | 9.7 | 0.00 | 3.84 | 0.00 | 91 | 1009.9 |
| 20260506232246 | 11 | 337 | 4.8 | 9.7 | 0.00 | 3.84 | 0.00 | 91 | 1010.1 |
| 20260506232145 | 11 | 336 | 4.8 | 9.7 | 0.00 | 3.84 | 0.00 | 91 | 1010.0 |
| 20260506232045 | 11 | 336 | 4.8 | 9.7 | 0.00 | 3.84 | 0.00 | 90 | 1010.0 |
| 20260506231945 | 11 | 338 | 3.2 | 9.7 | 0.00 | 3.84 | 0.00 | 90 | 1010.0 |
| 20260506231845 | 11 | 337 | 3.2 | 9.7 | 0.00 | 3.84 | 0.00 | 90 | 1010.1 |
| 20260506231744 | 11 | 336 | 1.6 | 9.7 | 0.00 | 3.84 | 0.00 | 90 | 1009.9 |
| 20260506231645 | 11 | 338 | 1.6 | 4.8 | 0.00 | 3.84 | 0.00 | 91 | 1009.9 |
| 20260506231545 | 11 | 338 | 1.6 | 4.8 | 0.00 | 3.84 | 0.00 | 91 | 1010.0 |
| 20260506231444 | 11 | 339 | 0.0 | 3.2 | 0.00 | 3.84 | 0.00 | 91 | 1010.0 |
| 20260506231344 | 11 | 340 | 0.0 | 3.2 | 0.00 | 3.84 | 0.00 | 91 | 1010.0 |
| 20260506231244 | 11 | 343 | 0.0 | 3.2 | 0.00 | 3.84 | 0.00 | 91 | 1010.0 |
| 20260506231145 | 11 | 352 | 0.0 | 3.2 | 0.00 | 3.84 | 0.00 | 91 | 1010.0 |
| 20260506231045 | 11 | 4 | 0.0 | 1.6 | 0.00 | 3.84 | 0.00 | 91 | 1010.0 |
| 20260506230945 | 11 | 8 | 0.0 | 3.2 | 0.00 | 3.84 | 0.00 | 91 | 1010.0 |
| 20260506230844 | 11 | 8 | 0.0 | 3.2 | 0.00 | 3.84 | 0.00 | 91 | 1009.9 |
| 20260506230744 | 11 | 3 | 0.0 | 3.2 | 0.00 | 3.84 | 0.00 | 91 | 1009.9 |
| 20260506230644 | 11 | 4 | 1.6 | 4.8 | 0.00 | 3.84 | 0.00 | 91 | 1009.9 |
| 20260506230544 | 11 | 5 | 1.6 | 4.8 | 0.00 | 3.84 | 0.00 | 91 | 1010.0 |
| 20260506230444 | 11 | 5 | 1.6 | 4.8 | 0.00 | 3.84 | 0.00 | 91 | 1010.0 |
| 20260506230344 | 11 | 3 | 1.6 | 4.8 | 0.00 | 3.84 | 0.00 | 91 | 1009.9 |
| 20260506230245 | 11 | 2 | 3.2 | 4.8 | 0.00 | 3.84 | 0.00 | 91 | 1009.9 |
| 20260506230145 | 11 | 357 | 3.2 | 4.8 | 0.00 | 3.84 | 0.00 | 91 | 1009.9 |
| 20260506230045 | 11 | 351 | 3.2 | 6.4 | 0.00 | 3.84 | 0.00 | 91 | 1009.8 |
| 20260506225944 | 11 | 347 | 3.2 | 6.4 | 0.00 | 3.84 | 0.00 | 91 | 1009.8 |
| 20260506225845 | 11 | 343 | 4.8 | 6.4 | 0.00 | 3.84 | 0.00 | 91 | 1009.9 |
| 20260506225745 | 11 | 342 | 4.8 | 6.4 | 0.00 | 3.84 | 0.00 | 91 | 1009.9 |
| 20260506225644 | 11 | 339 | 4.8 | 6.4 | 0.00 | 3.84 | 0.00 | 91 | 1009.9 |
| 20260506225544 | 11 | 336 | 4.8 | 6.4 | 0.00 | 3.84 | 0.00 | 91 | 1010.0 |
| 20260506225444 | 11 | 332 | 4.8 | 6.4 | 0.00 | 3.84 | 0.00 | 91 | 1010.0 |
| 20260506225346 | 11 | 329 | 4.8 | 6.4 | 0.00 | 3.84 | 0.00 | 91 | 1009.9 |
| 20260506225244 | 11 | 326 | 3.2 | 6.4 | 0.00 | 3.84 | 0.00 | 91 | 1009.9 |
| 20260506225144 | 11 | 326 | 3.2 | 6.4 | 0.00 | 3.84 | 0.00 | 91 | 1010.0 |
| 20260506225046 | 11 | 326 | 3.2 | 6.4 | 0.00 | 3.84 | 0.00 | 91 | 1010.0 |
| 20260506224945 | 11 | 326 | 1.6 | 4.8 | 0.00 | 3.84 | 0.00 | 91 | 1010.1 |
| 20260506224844 | 11 | 325 | 1.6 | 4.8 | 0.00 | 3.84 | 0.00 | 91 | 1010.1 |
| 20260506224744 | 11 | 324 | 1.6 | 4.8 | 0.00 | 3.84 | 0.00 | 91 | 1010.1 |
| 20260506224646 | 11 | 318 | 0.0 | 4.8 | 0.00 | 3.84 | 0.00 | 91 | 1010.1 |
| 20260506224546 | 11 | 317 | 0.0 | 4.8 | 0.00 | 3.84 | 0.00 | 91 | 1010.2 |
| 20260506224446 | 11 | 324 | 1.6 | 4.8 | 0.00 | 3.84 | 0.00 | 91 | 1010.1 |
| 20260506224344 | 11 | 332 | 1.6 | 4.8 | 0.00 | 3.84 | 0.00 | 91 | 1010.2 |
| 20260506224244 | 11 | 337 | 1.6 | 4.8 | 0.00 | 3.84 | 0.00 | 91 | 1010.1 |
| 20260506224145 | 11 | 337 | 1.6 | 4.8 | 0.00 | 3.84 | 0.00 | 91 | 1010.1 |
| 20260506224045 | 11 | 340 | 3.2 | 6.4 | 0.00 | 3.84 | 0.00 | 91 | 1010.1 |
| 20260506223945 | 11 | 342 | 3.2 | 9.7 | 0.00 | 3.84 | 0.00 | 90 | 1010.0 |
| 20260506223844 | 11 | 343 | 3.2 | 9.7 | 0.00 | 3.84 | 0.00 | 91 | 1010.0 |
| 20260506223744 | 11 | 346 | 4.8 | 9.7 | 0.00 | 3.84 | 0.00 | 91 | 1010.0 |
| 20260506223644 | 11 | 348 | 4.8 | 9.7 | 0.00 | 3.84 | 0.00 | 91 | 1010.0 |
| 20260506223545 | 11 | 350 | 4.8 | 9.7 | 0.00 | 3.84 | 0.00 | 91 | 1009.9 |
| 20260506223445 | 11 | 351 | 4.8 | 9.7 | 0.00 | 3.84 | 0.00 | 91 | 1009.9 |
| 20260506223345 | 11 | 352 | 4.8 | 9.7 | 0.00 | 3.84 | 0.00 | 91 | 1010.0 |
| 20260506223244 | 11 | 352 | 4.8 | 9.7 | 0.00 | 3.84 | 0.00 | 91 | 1010.0 |
| 20260506223146 | 11 | 352 | 4.8 | 9.7 | 0.00 | 3.84 | 0.00 | 91 | 1010.0 |
| 20260506223045 | 11 | 351 | 4.8 | 9.7 | 0.00 | 3.84 | 0.00 | 91 | 1010.0 |
| 20260506222945 | 11 | 350 | 4.8 | 9.7 | 0.00 | 3.84 | 0.00 | 91 | 1010.0 |
| 20260506222845 | 11 | 351 | 4.8 | 9.7 | 0.00 | 3.84 | 0.00 | 91 | 1009.9 |
| 20260506222745 | 11 | 349 | 3.2 | 6.4 | 0.00 | 3.84 | 0.00 | 91 | 1009.9 |
| 20260506222644 | 11 | 348 | 3.2 | 6.4 | 0.00 | 3.84 | 0.00 | 91 | 1010.0 |
| 20260506222544 | 11 | 349 | 3.2 | 6.4 | 0.00 | 3.84 | 0.00 | 91 | 1009.9 |
| 20260506222444 | 11 | 346 | 3.2 | 6.4 | 0.00 | 3.84 | 0.00 | 91 | 1010.0 |
| 20260506222345 | 11 | 346 | 3.2 | 6.4 | 0.00 | 3.84 | 0.00 | 91 | 1009.9 |
| 20260506222245 | 11 | 346 | 3.2 | 6.4 | 0.00 | 3.84 | 0.00 | 91 | 1009.8 |
| 20260506222145 | 11 | 344 | 3.2 | 6.4 | 0.00 | 3.84 | 0.00 | 91 | 1009.8 |
| 20260506222045 | 11 | 342 | 3.2 | 6.4 | 0.00 | 3.84 | 0.00 | 91 | 1009.8 |
| 20260506221945 | 11 | 340 | 3.2 | 6.4 | 0.00 | 3.84 | 0.00 | 91 | 1009.7 |
| 20260506221845 | 11 | 339 | 3.2 | 6.4 | 0.00 | 3.84 | 0.00 | 91 | 1009.7 |
| 20260506221744 | 11 | 338 | 3.2 | 6.4 | 0.00 | 3.84 | 0.00 | 91 | 1009.7 |
| 20260506221644 | 11 | 339 | 3.2 | 6.4 | 0.00 | 3.84 | 0.00 | 91 | 1009.8 |
| 20260506221544 | 11 | 338 | 3.2 | 6.4 | 0.00 | 3.84 | 0.00 | 91 | 1009.7 |
| 20260506221445 | 11 | 340 | 3.2 | 4.8 | 0.00 | 3.84 | 0.00 | 91 | 1009.8 |
| 20260506221345 | 11 | 339 | 3.2 | 4.8 | 0.00 | 3.84 | 0.00 | 91 | 1009.8 |
| 20260506221244 | 11 | 339 | 3.2 | 4.8 | 0.00 | 3.84 | 0.00 | 91 | 1009.8 |
| 20260506221144 | 11 | 340 | 3.2 | 4.8 | 0.00 | 3.84 | 0.00 | 91 | 1009.8 |
| 20260506221046 | 11 | 341 | 3.2 | 4.8 | 0.00 | 3.84 | 0.00 | 91 | 1009.8 |
| 20260506220945 | 11 | 342 | 3.2 | 4.8 | 0.00 | 3.84 | 0.00 | 91 | 1009.8 |
| 20260506220844 | 11 | 342 | 3.2 | 4.8 | 0.00 | 3.84 | 0.00 | 91 | 1009.8 |
| 20260506220744 | 11 | 339 | 3.2 | 4.8 | 0.00 | 3.84 | 0.00 | 91 | 1009.7 |
| 20260506220645 | 11 | 336 | 3.2 | 4.8 | 0.00 | 3.84 | 0.00 | 91 | 1009.7 |
| 20260506220544 | 11 | 334 | 3.2 | 4.8 | 0.00 | 3.84 | 0.00 | 90 | 1009.7 |
| 20260506220444 | 11 | 329 | 1.6 | 4.8 | 0.00 | 3.84 | 0.00 | 90 | 1009.6 |
| 20260506220344 | 11 | 324 | 1.6 | 4.8 | 0.00 | 3.84 | 0.00 | 90 | 1009.7 |
| 20260506220245 | 11 | 319 | 1.6 | 4.8 | 0.00 | 3.84 | 0.00 | 91 | 1009.6 |
| 20260506220145 | 11 | 308 | 0.0 | 3.2 | 0.00 | 3.84 | 0.00 | 91 | 1009.6 |
| 20260506220045 | 11 | 298 | 0.0 | 3.2 | 0.00 | 3.84 | 0.00 | 90 | 1009.6 |
| 20260506215944 | 11 | 287 | 0.0 | 1.6 | 0.00 | 3.84 | 3.84 | 90 | 1009.6 |
| 20260506215844 | 11 | 276 | 0.0 | 3.2 | 0.00 | 3.84 | 3.84 | 90 | 1009.5 |
| 20260506215744 | 11 | 272 | 0.0 | 3.2 | 0.00 | 3.84 | 3.84 | 91 | 1009.6 |
| 20260506215645 | 11 | 276 | 0.0 | 3.2 | 0.00 | 3.84 | 3.84 | 91 | 1009.6 |
| 20260506215545 | 11 | 283 | 0.0 | 3.2 | 0.00 | 3.84 | 3.84 | 91 | 1009.7 |
| 20260506215445 | 11 | 290 | 0.0 | 3.2 | 0.00 | 3.84 | 3.84 | 91 | 1009.7 |
| 20260506215344 | 11 | 298 | 1.6 | 3.2 | 0.00 | 3.84 | 3.84 | 91 | 1009.7 |
| 20260506215244 | 11 | 301 | 1.6 | 3.2 | 0.00 | 3.84 | 3.84 | 91 | 1009.7 |
| 20260506215144 | 11 | 305 | 1.6 | 3.2 | 0.00 | 3.84 | 3.84 | 91 | 1009.6 |
| 20260506215045 | 11 | 311 | 1.6 | 3.2 | 0.00 | 3.84 | 3.84 | 91 | 1009.7 |
| 20260506214945 | 11 | 315 | 1.6 | 3.2 | 0.00 | 3.84 | 3.84 | 91 | 1009.7 |
| 20260506214845 | 11 | 321 | 1.6 | 3.2 | 0.00 | 3.84 | 3.84 | 91 | 1009.7 |
| 20260506214744 | 11 | 326 | 1.6 | 3.2 | 0.00 | 3.84 | 3.84 | 91 | 1009.6 |
| 20260506214645 | 11 | 326 | 1.6 | 3.2 | 0.00 | 3.84 | 3.84 | 91 | 1009.6 |
| 20260506214545 | 11 | 327 | 1.6 | 3.2 | 0.00 | 3.84 | 3.84 | 91 | 1009.6 |
| 20260506214445 | 11 | 327 | 1.6 | 3.2 | 0.00 | 3.84 | 3.84 | 91 | 1009.6 |
| 20260506214345 | 11 | 330 | 1.6 | 3.2 | 0.00 | 3.84 | 3.84 | 91 | 1009.5 |
| 20260506214245 | 11 | 335 | 1.6 | 3.2 | 0.00 | 3.84 | 3.84 | 91 | 1009.6 |
| 20260506214144 | 11 | 336 | 1.6 | 3.2 | 0.00 | 3.84 | 3.84 | 91 | 1009.5 |
| 20260506214044 | 11 | 337 | 1.6 | 3.2 | 0.00 | 3.84 | 3.84 | 91 | 1009.6 |
| 20260506213945 | 11 | 338 | 1.6 | 3.2 | 0.00 | 3.84 | 3.84 | 91 | 1009.5 |
| 20260506213845 | 11 | 340 | 1.6 | 3.2 | 0.00 | 3.84 | 3.84 | 91 | 1009.5 |
| 20260506213745 | 11 | 345 | 0.0 | 3.2 | 0.00 | 3.84 | 3.84 | 91 | 1009.5 |
| 20260506213645 | 11 | 348 | 1.6 | 3.2 | 0.00 | 3.84 | 3.84 | 91 | 1009.5 |
| 20260506213545 | 11 | 351 | 1.6 | 3.2 | 0.00 | 3.84 | 3.84 | 91 | 1009.5 |
| 20260506213445 | 11 | 353 | 1.6 | 4.8 | 0.00 | 3.84 | 3.84 | 90 | 1009.5 |
| 20260506213346 | 11 | 347 | 1.6 | 6.4 | 0.00 | 3.84 | 3.84 | 91 | 1009.6 |
| 20260506213244 | 11 | 346 | 1.6 | 6.4 | 0.00 | 3.84 | 3.84 | 91 | 1009.6 |
| 20260506213145 | 11 | 345 | 1.6 | 6.4 | 0.00 | 3.84 | 3.84 | 91 | 1009.6 |
| 20260506213045 | 11 | 345 | 3.2 | 6.4 | 0.00 | 3.84 | 3.84 | 91 | 1009.6 |
| 20260506212944 | 11 | 344 | 3.2 | 6.4 | 0.00 | 3.84 | 3.84 | 91 | 1009.5 |
| 20260506212844 | 11 | 342 | 3.2 | 6.4 | 0.00 | 3.84 | 3.84 | 91 | 1009.6 |
| 20260506212744 | 11 | 339 | 3.2 | 6.4 | 0.00 | 3.84 | 3.84 | 91 | 1009.6 |
| 20260506212644 | 11 | 337 | 4.8 | 6.4 | 0.00 | 3.84 | 3.84 | 91 | 1009.6 |
| 20260506212544 | 11 | 336 | 4.8 | 6.4 | 0.00 | 3.84 | 3.84 | 90 | 1009.5 |
| 20260506212444 | 11 | 336 | 3.2 | 6.4 | 0.00 | 3.84 | 3.84 | 90 | 1009.5 |
| 20260506212346 | 11 | 337 | 3.2 | 6.4 | 0.00 | 3.84 | 3.84 | 90 | 1009.6 |
| 20260506212244 | 11 | 336 | 3.2 | 6.4 | 0.00 | 3.84 | 3.84 | 90 | 1009.6 |
| 20260506212144 | 11 | 335 | 3.2 | 6.4 | 0.00 | 3.84 | 3.84 | 90 | 1009.6 |
| 20260506212044 | 11 | 335 | 1.6 | 6.4 | 0.00 | 3.84 | 3.84 | 90 | 1009.7 |
| 20260506211946 | 11 | 333 | 1.6 | 6.4 | 0.00 | 3.84 | 3.84 | 90 | 1009.5 |
| 20260506211845 | 11 | 332 | 1.6 | 6.4 | 0.00 | 3.84 | 3.84 | 90 | 1009.5 |
| 20260506211744 | 11 | 332 | 1.6 | 4.8 | 0.00 | 3.84 | 3.84 | 90 | 1009.5 |
| 20260506211646 | 12 | 331 | 1.6 | 4.8 | 0.00 | 3.84 | 3.84 | 90 | 1009.5 |
| 20260506211546 | 12 | 327 | 1.6 | 4.8 | 0.00 | 3.84 | 3.84 | 90 | 1009.5 |
| 20260506211445 | 11 | 324 | 1.6 | 4.8 | 0.00 | 3.84 | 3.84 | 91 | 1009.5 |
| 20260506211345 | 11 | 322 | 1.6 | 4.8 | 0.00 | 3.84 | 3.84 | 90 | 1009.6 |
| 20260506211245 | 11 | 321 | 1.6 | 4.8 | 0.00 | 3.84 | 3.84 | 90 | 1009.6 |
| 20260506211145 | 11 | 320 | 1.6 | 4.8 | 0.00 | 3.84 | 3.84 | 90 | 1009.5 |
| 20260506211045 | 11 | 318 | 1.6 | 4.8 | 0.00 | 3.84 | 3.84 | 90 | 1009.5 |
| 20260506210945 | 11 | 320 | 1.6 | 4.8 | 0.00 | 3.84 | 3.84 | 90 | 1009.5 |
| 20260506210845 | 11 | 323 | 1.6 | 4.8 | 0.00 | 3.84 | 3.84 | 90 | 1009.6 |
| 20260506210745 | 11 | 329 | 1.6 | 4.8 | 0.00 | 3.84 | 3.84 | 90 | 1009.5 |
| 20260506210645 | 12 | 339 | 1.6 | 6.4 | 0.00 | 3.84 | 3.84 | 90 | 1009.5 |
| 20260506210545 | 12 | 349 | 1.6 | 6.4 | 0.00 | 3.84 | 3.84 | 91 | 1009.6 |
| 20260506210445 | 12 | 354 | 1.6 | 6.4 | 0.00 | 3.84 | 3.84 | 91 | 1009.6 |
| 20260506210344 | 12 | 356 | 1.6 | 9.7 | 0.00 | 3.84 | 3.84 | 91 | 1009.6 |
| 20260506210244 | 12 | 356 | 3.2 | 11.3 | 0.00 | 3.84 | 3.84 | 91 | 1009.6 |
| 20260506210145 | 12 | 355 | 3.2 | 11.3 | 0.00 | 3.84 | 3.84 | 90 | 1009.6 |
| 20260506210045 | 12 | 353 | 4.8 | 11.3 | 0.00 | 3.84 | 3.84 | 90 | 1009.6 |
| 20260506205945 | 12 | 353 | 4.8 | 12.9 | 0.00 | 3.84 | 3.84 | 90 | 1009.5 |
| 20260506205845 | 12 | 353 | 6.4 | 12.9 | 0.00 | 3.84 | 3.84 | 90 | 1009.6 |
| 20260506205745 | 12 | 353 | 6.4 | 12.9 | 0.00 | 3.84 | 3.84 | 90 | 1009.7 |
| 20260506205644 | 12 | 352 | 8.0 | 12.9 | 0.00 | 3.84 | 3.84 | 90 | 1009.7 |
| 20260506205544 | 12 | 352 | 8.0 | 12.9 | 0.00 | 3.84 | 3.84 | 90 | 1009.7 |
| 20260506205444 | 12 | 352 | 8.0 | 14.5 | 0.00 | 3.84 | 3.84 | 90 | 1009.7 |
| 20260506205346 | 12 | 354 | 8.0 | 14.5 | 0.00 | 3.84 | 3.84 | 90 | 1009.7 |
| 20260506205245 | 12 | 354 | 8.0 | 14.5 | 0.00 | 3.84 | 3.84 | 91 | 1009.7 |
| 20260506205145 | 12 | 354 | 8.0 | 14.5 | 0.00 | 3.84 | 3.84 | 90 | 1009.7 |
| 20260506205044 | 12 | 356 | 8.0 | 14.5 | 0.00 | 3.84 | 3.84 | 90 | 1009.7 |
| 20260506204944 | 12 | 356 | 8.0 | 14.5 | 0.00 | 3.84 | 3.84 | 90 | 1009.7 |
| 20260506204844 | 12 | 356 | 8.0 | 14.5 | 0.00 | 3.84 | 3.84 | 90 | 1009.6 |
| 20260506204745 | 12 | 356 | 6.4 | 14.5 | 0.00 | 3.84 | 3.84 | 90 | 1009.7 |
| 20260506204645 | 12 | 356 | 6.4 | 14.5 | 0.00 | 3.84 | 3.84 | 90 | 1009.6 |
| 20260506204545 | 12 | 357 | 6.4 | 14.5 | 0.00 | 3.84 | 3.84 | 90 | 1009.6 |
| 20260506204444 | 12 | 357 | 4.8 | 12.9 | 0.00 | 3.84 | 3.84 | 90 | 1009.6 |
| 20260506204344 | 12 | 355 | 4.8 | 12.9 | 0.00 | 3.84 | 3.84 | 90 | 1009.6 |
| 20260506204244 | 12 | 353 | 4.8 | 12.9 | 0.00 | 3.84 | 3.84 | 90 | 1009.7 |
| 20260506204145 | 12 | 350 | 3.2 | 9.7 | 0.00 | 3.84 | 3.84 | 90 | 1009.7 |
| 20260506204045 | 12 | 346 | 3.2 | 9.7 | 0.00 | 3.84 | 3.84 | 90 | 1009.7 |
| 20260506203945 | 12 | 342 | 3.2 | 9.7 | 0.00 | 3.84 | 3.84 | 90 | 1009.7 |
| 20260506203845 | 12 | 342 | 1.6 | 9.7 | 0.00 | 3.84 | 3.84 | 90 | 1009.6 |
| 20260506203745 | 12 | 337 | 1.6 | 6.4 | 0.00 | 3.84 | 3.84 | 90 | 1009.7 |
| 20260506203646 | 12 | 330 | 1.6 | 4.8 | 0.00 | 3.84 | 3.84 | 90 | 1009.6 |
| 20260506203545 | 12 | 321 | 1.6 | 3.2 | 0.00 | 3.84 | 3.84 | 90 | 1009.6 |
| 20260506203445 | 12 | 319 | 0.0 | 1.6 | 0.00 | 3.84 | 3.84 | 90 | 1009.6 |
| 20260506203345 | 12 | 322 | 0.0 | 1.6 | 0.00 | 3.84 | 3.84 | 90 | 1009.4 |
| 20260506203244 | 12 | 331 | 0.0 | 1.6 | 0.00 | 3.84 | 3.84 | 90 | 1009.5 |
| 20260506203144 | 12 | 15 | 0.0 | 1.6 | 0.00 | 3.84 | 3.84 | 90 | 1009.4 |
| 20260506203046 | 12 | 94 | 0.0 | 1.6 | 0.00 | 3.84 | 3.84 | 90 | 1009.5 |
| 20260506202945 | 12 | 118 | 0.0 | 1.6 | 0.00 | 3.84 | 3.84 | 90 | 1009.4 |
| 20260506202845 | 12 | 124 | 0.0 | 1.6 | 0.00 | 3.84 | 3.84 | 90 | 1009.3 |
| 20260506202745 | 12 | 130 | 0.0 | 1.6 | 0.00 | 3.84 | 3.84 | 90 | 1009.4 |
| 20260506202644 | 12 | 131 | 0.0 | 1.6 | 0.00 | 3.84 | 3.84 | 90 | 1009.4 |
| 20260506202544 | 12 | 132 | 0.0 | 1.6 | 0.00 | 3.84 | 3.84 | 90 | 1009.4 |
| 20260506202444 | 12 | 133 | 0.0 | 1.6 | 0.00 | 3.84 | 3.84 | 90 | 1009.4 |
| 20260506202344 | 12 | 133 | 0.0 | 1.6 | 0.00 | 3.84 | 3.84 | 90 | 1009.4 |
| 20260506202246 | 12 | 136 | 0.0 | 3.2 | 0.00 | 3.84 | 3.84 | 90 | 1009.3 |
| 20260506202145 | 12 | 141 | 0.0 | 3.2 | 0.00 | 3.84 | 3.84 | 90 | 1009.3 |
| 20260506202045 | 12 | 144 | 0.0 | 3.2 | 0.00 | 3.84 | 3.84 | 89 | 1009.3 |
| 20260506201945 | 12 | 151 | 0.0 | 3.2 | 0.00 | 3.84 | 3.84 | 89 | 1009.3 |
| 20260506201846 | 12 | 152 | 0.0 | 3.2 | 0.00 | 3.84 | 3.84 | 90 | 1009.2 |
| 20260506201745 | 12 | 159 | 0.0 | 3.2 | 0.00 | 3.84 | 3.84 | 89 | 1009.2 |
| 20260506201645 | 12 | 162 | 0.0 | 3.2 | 0.00 | 3.84 | 3.84 | 90 | 1009.2 |
| 20260506201545 | 12 | 168 | 0.0 | 3.2 | 0.00 | 3.84 | 3.84 | 90 | 1009.1 |
| 20260506201444 | 12 | 170 | 0.0 | 3.2 | 0.00 | 3.84 | 3.84 | 90 | 1009.1 |
| 20260506201344 | 12 | 172 | 0.0 | 3.2 | 0.00 | 3.84 | 3.84 | 89 | 1009.2 |
| 20260506201244 | 12 | 211 | 0.0 | 1.6 | 0.03 | 3.84 | 3.84 | 90 | 1009.2 |
| 20260506201145 | 12 | 227 | 0.0 | 1.6 | 0.03 | 3.84 | 3.84 | 90 | 1009.1 |
| 20260506201045 | 12 | 227 | 0.0 | 1.6 | 0.03 | 3.84 | 3.84 | 89 | 1009.1 |
| 20260506200945 | 12 | 273 | 0.0 | 0.0 | 0.03 | 3.94 | 3.84 | 90 | 1009.1 |
| 20260506200845 | 12 | 276 | 0.0 | 0.0 | 0.03 | 3.94 | 3.84 | 90 | 1009.1 |
| 20260506200745 | 12 | 276 | 0.0 | 0.0 | 0.03 | 3.94 | 3.84 | 90 | 1009.1 |
| 20260506200644 | 12 | 276 | 0.0 | 0.0 | 0.03 | 3.94 | 3.84 | 90 | 1009.1 |
| 20260506200545 | 12 | 276 | 0.0 | 1.6 | 0.03 | 3.94 | 3.84 | 90 | 1009.1 |
| 20260506200445 | 12 | 276 | 0.0 | 1.6 | 0.03 | 3.94 | 3.84 | 90 | 1009.1 |
| 20260506200345 | 12 | 279 | 0.0 | 1.6 | 0.05 | 3.94 | 3.84 | 89 | 1009.0 |
| 20260506200244 | 12 | 280 | 0.0 | 1.6 | 0.05 | 3.94 | 3.84 | 89 | 1009.1 |
| 20260506200146 | 12 | 285 | 0.0 | 3.2 | 0.05 | 3.94 | 3.84 | 89 | 1009.0 |
| 20260506200046 | 12 | 286 | 0.0 | 3.2 | 0.05 | 3.94 | 3.84 | 89 | 1009.0 |
| 20260506195944 | 12 | 289 | 0.0 | 3.2 | 0.05 | 3.94 | 3.84 | 89 | 1009.0 |
| 20260506195844 | 12 | 296 | 1.6 | 4.8 | 0.08 | 3.94 | 3.84 | 90 | 1009.0 |
| 20260506195744 | 12 | 300 | 1.6 | 4.8 | 0.08 | 3.94 | 3.84 | 89 | 1009.0 |
| 20260506195645 | 12 | 304 | 1.6 | 4.8 | 0.08 | 3.94 | 3.84 | 89 | 1008.9 |
| 20260506195545 | 12 | 310 | 1.6 | 4.8 | 0.08 | 3.94 | 3.84 | 89 | 1008.9 |
| 20260506195445 | 12 | 313 | 1.6 | 4.8 | 0.08 | 3.94 | 3.84 | 89 | 1008.9 |
| 20260506195345 | 12 | 316 | 1.6 | 4.8 | 0.08 | 3.94 | 3.84 | 89 | 1008.9 |
| 20260506195245 | 12 | 318 | 1.6 | 4.8 | 0.08 | 3.94 | 3.84 | 89 | 1009.0 |
| 20260506195145 | 12 | 321 | 1.6 | 4.8 | 0.08 | 3.94 | 3.84 | 89 | 1008.9 |
| 20260506195044 | 12 | 324 | 1.6 | 4.8 | 0.10 | 3.94 | 3.84 | 89 | 1008.9 |
| 20260506194945 | 12 | 326 | 1.6 | 4.8 | 0.10 | 3.94 | 3.84 | 90 | 1008.8 |
| 20260506194845 | 12 | 327 | 1.6 | 3.2 | 0.10 | 3.94 | 3.84 | 90 | 1008.9 |
| 20260506194745 | 12 | 330 | 1.6 | 3.2 | 0.10 | 3.94 | 3.84 | 90 | 1008.7 |
| 20260506194645 | 12 | 331 | 1.6 | 3.2 | 0.13 | 3.94 | 3.84 | 90 | 1008.8 |
| 20260506194545 | 12 | 335 | 1.6 | 3.2 | 0.13 | 3.94 | 3.84 | 90 | 1008.8 |
| 20260506194445 | 12 | 336 | 1.6 | 3.2 | 0.13 | 3.94 | 3.84 | 90 | 1008.8 |
| 20260506194345 | 12 | 337 | 1.6 | 3.2 | 0.13 | 3.94 | 3.84 | 90 | 1008.8 |
| 20260506194246 | 12 | 339 | 1.6 | 3.2 | 0.13 | 3.94 | 3.84 | 89 | 1008.8 |
| 20260506194145 | 12 | 342 | 1.6 | 3.2 | 0.15 | 3.94 | 3.84 | 89 | 1008.8 |
| 20260506194045 | 12 | 344 | 1.6 | 3.2 | 0.15 | 3.94 | 3.84 | 89 | 1008.7 |
| 20260506193944 | 12 | 348 | 1.6 | 3.2 | 0.15 | 3.94 | 3.84 | 89 | 1008.8 |
| 20260506193844 | 12 | 348 | 1.6 | 3.2 | 0.15 | 3.94 | 3.84 | 89 | 1008.8 |
| 20260506193744 | 12 | 349 | 1.6 | 3.2 | 0.15 | 3.94 | 3.84 | 89 | 1008.8 |
| 20260506193644 | 12 | 350 | 1.6 | 3.2 | 0.18 | 3.94 | 3.84 | 89 | 1008.7 |
| 20260506193545 | 12 | 349 | 0.0 | 3.2 | 0.18 | 3.94 | 3.84 | 89 | 1008.8 |
| 20260506193445 | 12 | 351 | 0.0 | 3.2 | 0.18 | 3.94 | 3.84 | 89 | 1008.7 |
| 20260506193344 | 12 | 354 | 0.0 | 3.2 | 0.18 | 3.94 | 3.84 | 89 | 1008.7 |
| 20260506193246 | 12 | 358 | 0.0 | 3.2 | 0.20 | 3.94 | 3.84 | 89 | 1008.6 |
| 20260506193145 | 12 | 1 | 0.0 | 3.2 | 0.23 | 3.94 | 3.84 | 89 | 1008.7 |
| 20260506193045 | 12 | 350 | 0.0 | 1.6 | 0.25 | 3.94 | 3.84 | 89 | 1008.7 |
| 20260506192945 | 12 | 345 | 0.0 | 1.6 | 0.23 | 3.94 | 3.84 | 89 | 1008.7 |
| 20260506192844 | 12 | 341 | 0.0 | 1.6 | 0.25 | 3.94 | 3.84 | 88 | 1008.7 |
| 20260506192746 | 12 | 339 | 0.0 | 1.6 | 0.25 | 3.94 | 3.84 | 89 | 1008.7 |
| 20260506192644 | 12 | 339 | 0.0 | 3.2 | 0.28 | 3.94 | 3.84 | 89 | 1008.7 |
| 20260506192545 | 12 | 338 | 0.0 | 3.2 | 0.28 | 3.94 | 3.84 | 89 | 1008.5 |
| 20260506192444 | 12 | 337 | 0.0 | 3.2 | 0.28 | 3.94 | 3.84 | 88 | 1008.6 |
| 20260506192344 | 12 | 336 | 1.6 | 3.2 | 0.28 | 3.94 | 3.84 | 88 | 1008.6 |
| 20260506192245 | 12 | 336 | 1.6 | 3.2 | 0.28 | 3.94 | 3.84 | 88 | 1008.5 |
| 20260506192144 | 12 | 334 | 1.6 | 3.2 | 0.28 | 3.94 | 3.84 | 88 | 1008.5 |
| 20260506192044 | 12 | 335 | 1.6 | 3.2 | 0.28 | 3.94 | 3.84 | 88 | 1008.4 |
| 20260506191944 | 12 | 335 | 1.6 | 3.2 | 0.28 | 3.94 | 3.84 | 88 | 1008.3 |
| 20260506191844 | 12 | 333 | 1.6 | 3.2 | 0.28 | 3.94 | 3.84 | 88 | 1008.4 |
| 20260506191743 | 12 | 330 | 1.6 | 3.2 | 0.28 | 3.94 | 3.84 | 88 | 1008.4 |
| 20260506191449 | 12 | 319 | 1.6 | 3.2 | 0.28 | 3.94 | 3.84 | 87 | 1008.4 |
| 20260506191348 | 12 | 308 | 1.6 | 3.2 | 0.28 | 3.94 | 3.84 | 87 | 1008.3 |
| 20260506191247 | 12 | 288 | 1.6 | 4.8 | 0.28 | 3.91 | 3.81 | 87 | 1008.4 |
| 20260506191146 | 12 | 270 | 1.6 | 4.8 | 0.28 | 3.91 | 3.81 | 87 | 1008.4 |
| 20260506191048 | 12 | 256 | 1.6 | 4.8 | 0.28 | 3.91 | 3.81 | 86 | 1008.4 |
| 20260506190948 | 12 | 240 | 3.2 | 9.7 | 0.28 | 3.91 | 3.81 | 86 | 1008.3 |
| 20260506190846 | 12 | 227 | 3.2 | 9.7 | 0.28 | 3.91 | 3.81 | 86 | 1008.3 |
| 20260506190748 | 12 | 217 | 3.2 | 9.7 | 0.28 | 3.91 | 3.81 | 86 | 1008.3 |
| 20260506190647 | 12 | 211 | 3.2 | 9.7 | 0.28 | 3.91 | 3.81 | 85 | 1008.4 |
| 20260506190547 | 12 | 208 | 4.8 | 9.7 | 0.28 | 3.91 | 3.81 | 85 | 1008.3 |
| 20260506190447 | 12 | 206 | 4.8 | 9.7 | 0.25 | 3.89 | 3.78 | 85 | 1008.2 |
| 20260506190349 | 12 | 204 | 4.8 | 9.7 | 0.25 | 3.89 | 3.78 | 85 | 1008.2 |
| 20260506190247 | 12 | 203 | 6.4 | 11.3 | 0.25 | 3.89 | 3.78 | 84 | 1008.3 |
| 20260506190147 | 12 | 203 | 6.4 | 11.3 | 0.25 | 3.89 | 3.78 | 84 | 1008.2 |
| 20260506190047 | 12 | 202 | 6.4 | 11.3 | 0.25 | 3.89 | 3.78 | 84 | 1008.2 |
| 20260506185946 | 12 | 200 | 6.4 | 11.3 | 0.23 | 3.86 | 3.76 | 84 | 1008.2 |
| 20260506185848 | 12 | 200 | 6.4 | 11.3 | 0.23 | 3.86 | 3.76 | 84 | 1008.1 |
| 20260506185748 | 12 | 199 | 6.4 | 11.3 | 0.23 | 3.86 | 3.76 | 84 | 1008.1 |
| 20260506185647 | 12 | 198 | 6.4 | 11.3 | 0.20 | 3.84 | 3.76 | 84 | 1008.2 |
| 20260506185547 | 12 | 198 | 6.4 | 11.3 | 0.20 | 3.84 | 3.76 | 83 | 1008.2 |
| 20260506185447 | 12 | 198 | 4.8 | 11.3 | 0.20 | 3.84 | 3.76 | 83 | 1008.1 |
| 20260506185347 | 12 | 199 | 4.8 | 11.3 | 0.20 | 3.84 | 3.76 | 83 | 1008.0 |
| 20260506185248 | 13 | 197 | 4.8 | 9.7 | 0.20 | 3.84 | 3.76 | 82 | 1008.0 |
| 20260506185147 | 13 | 197 | 3.2 | 9.7 | 0.20 | 3.84 | 3.76 | 82 | 1008.1 |
| 20260506185047 | 13 | 196 | 3.2 | 9.7 | 0.18 | 3.84 | 3.73 | 82 | 1008.1 |
| 20260506184949 | 13 | 197 | 1.6 | 6.4 | 0.18 | 3.84 | 3.73 | 82 | 1008.0 |
| 20260506184848 | 13 | 197 | 1.6 | 4.8 | 0.18 | 3.84 | 3.73 | 82 | 1008.0 |
| 20260506184746 | 13 | 199 | 1.6 | 4.8 | 0.18 | 3.84 | 3.73 | 82 | 1008.0 |
| 20260506184647 | 13 | 203 | 0.0 | 4.8 | 0.18 | 3.81 | 3.71 | 81 | 1007.8 |
| 20260506184547 | 13 | 213 | 0.0 | 4.8 | 0.18 | 3.81 | 3.71 | 81 | 1007.7 |
| 20260506184447 | 13 | 217 | 0.0 | 4.8 | 0.18 | 3.81 | 3.71 | 81 | 1007.7 |
| 20260506184348 | 13 | 225 | 0.0 | 4.8 | 0.18 | 3.81 | 3.71 | 81 | 1007.7 |
| 20260506184248 | 13 | 229 | 0.0 | 4.8 | 0.18 | 3.81 | 3.71 | 81 | 1007.7 |
| 20260506184147 | 13 | 234 | 0.0 | 4.8 | 0.15 | 3.78 | 3.68 | 80 | 1007.8 |
| 20260506184047 | 13 | 239 | 0.0 | 4.8 | 0.15 | 3.78 | 3.68 | 79 | 1007.8 |
| 20260506183947 | 13 | 235 | 0.0 | 4.8 | 0.15 | 3.78 | 3.68 | 79 | 1007.6 |
| 20260506183847 | 13 | 227 | 0.0 | 4.8 | 0.15 | 3.78 | 3.68 | 79 | 1007.7 |
| 20260506183747 | 13 | 215 | 1.6 | 4.8 | 0.13 | 3.76 | 3.66 | 78 | 1007.7 |
| 20260506183647 | 13 | 209 | 1.6 | 4.8 | 0.13 | 3.76 | 3.66 | 78 | 1007.6 |
| 20260506183546 | 13 | 206 | 1.6 | 3.2 | 0.10 | 3.76 | 3.66 | 77 | 1007.4 |
| 20260506183448 | 14 | 209 | 1.6 | 3.2 | 0.10 | 3.76 | 3.66 | 77 | 1007.5 |
| 20260506183348 | 14 | 211 | 1.6 | 3.2 | 0.08 | 3.73 | 3.63 | 77 | 1007.5 |
| 20260506183248 | 14 | 214 | 1.6 | 3.2 | 0.08 | 3.73 | 3.63 | 76 | 1007.4 |
| 20260506183147 | 14 | 220 | 1.6 | 3.2 | 0.08 | 3.71 | 3.61 | 76 | 1007.3 |
| 20260506183047 | 14 | 222 | 1.6 | 3.2 | 0.05 | 3.68 | 3.58 | 76 | 1007.3 |
| 20260506182946 | 14 | 236 | 1.6 | 4.8 | 0.05 | 3.68 | 3.58 | 75 | 1007.4 |
| 20260506182848 | 14 | 245 | 1.6 | 4.8 | 0.03 | 3.66 | 3.56 | 75 | 1007.2 |
| 20260506182748 | 14 | 266 | 1.6 | 4.8 | 0.00 | 3.66 | 3.56 | 75 | 1007.3 |
| 20260506182646 | 14 | 281 | 1.6 | 4.8 | 0.00 | 3.66 | 3.56 | 74 | 1007.3 |
| 20260506182548 | 14 | 286 | 1.6 | 4.8 | 0.00 | 3.66 | 3.56 | 74 | 1007.2 |
| 20260506182448 | 14 | 287 | 1.6 | 4.8 | 0.00 | 3.66 | 3.56 | 74 | 1007.2 |
| 20260506182346 | 14 | 280 | 1.6 | 4.8 | 0.00 | 3.63 | 3.53 | 75 | 1007.2 |
| 20260506182247 | 14 | 284 | 1.6 | 4.8 | 0.00 | 3.63 | 3.53 | 75 | 1007.1 |
| 20260506182147 | 14 | 300 | 1.6 | 4.8 | 0.00 | 3.63 | 3.53 | 75 | 1007.1 |
| 20260506182047 | 14 | 315 | 1.6 | 4.8 | 0.00 | 3.63 | 3.53 | 75 | 1007.1 |
| 20260506181951 | 14 | 323 | 1.6 | 4.8 | 0.00 | 3.63 | 3.53 | 75 | 1007.2 |
| 20260506181852 | 14 | 326 | 1.6 | 6.4 | 0.00 | 3.63 | 3.53 | 75 | 1007.1 |
| 20260506181750 | 14 | 323 | 1.6 | 6.4 | 0.00 | 3.63 | 3.53 | 74 | 1007.1 |
| 20260506181651 | 14 | 324 | 3.2 | 11.3 | 0.00 | 3.63 | 3.53 | 74 | 1007.1 |
| 20260506181551 | 14 | 322 | 3.2 | 11.3 | 0.00 | 3.63 | 3.53 | 74 | 1007.1 |
| 20260506181451 | 14 | 324 | 3.2 | 11.3 | 0.00 | 3.63 | 3.53 | 74 | 1007.2 |
| 20260506181352 | 14 | 330 | 3.2 | 11.3 | 0.00 | 3.63 | 3.53 | 74 | 1007.2 |
| 20260506181252 | 14 | 331 | 3.2 | 11.3 | 0.00 | 3.63 | 3.53 | 74 | 1007.1 |
| 20260506181151 | 14 | 328 | 3.2 | 11.3 | 0.00 | 3.63 | 3.53 | 73 | 1007.1 |
| 20260506181051 | 14 | 325 | 4.8 | 11.3 | 0.00 | 3.63 | 3.53 | 73 | 1007.1 |
| 20260506180951 | 14 | 325 | 4.8 | 11.3 | 0.00 | 3.63 | 3.53 | 73 | 1007.1 |
| 20260506180850 | 14 | 326 | 4.8 | 11.3 | 0.00 | 3.63 | 3.53 | 73 | 1007.1 |
| 20260506180752 | 14 | 327 | 3.2 | 11.3 | 0.00 | 3.63 | 3.53 | 73 | 1007.1 |
| 20260506180651 | 14 | 334 | 3.2 | 9.7 | 0.00 | 3.63 | 3.53 | 73 | 1007.1 |
| 20260506180551 | 14 | 337 | 3.2 | 9.7 | 0.00 | 3.63 | 3.53 | 73 | 1007.1 |
| 20260506180451 | 14 | 340 | 3.2 | 11.3 | 0.00 | 3.63 | 3.53 | 73 | 1007.0 |
| 20260506180352 | 14 | 350 | 3.2 | 11.3 | 0.00 | 3.63 | 3.53 | 73 | 1007.1 |
| 20260506180250 | 14 | 13 | 3.2 | 11.3 | 0.00 | 3.63 | 3.53 | 72 | 1007.1 |
| 20260506180152 | 14 | 42 | 3.2 | 11.3 | 0.00 | 3.63 | 3.53 | 72 | 1007.1 |
| 20260506180052 | 14 | 61 | 3.2 | 11.3 | 0.00 | 3.63 | 3.53 | 72 | 1007.0 |
| 20260506175950 | 14 | 73 | 3.2 | 11.3 | 0.00 | 3.63 | 3.53 | 72 | 1007.0 |
| 20260506175851 | 14 | 77 | 3.2 | 11.3 | 0.00 | 3.63 | 3.53 | 72 | 1006.9 |
| 20260506175751 | 14 | 87 | 3.2 | 11.3 | 0.00 | 3.63 | 3.53 | 72 | 1006.9 |
| 20260506175650 | 14 | 92 | 3.2 | 11.3 | 0.00 | 3.63 | 3.53 | 72 | 1006.9 |
| 20260506175550 | 14 | 95 | 3.2 | 11.3 | 0.00 | 3.63 | 3.53 | 72 | 1006.8 |
| 20260506175450 | 14 | 89 | 3.2 | 12.9 | 0.00 | 3.63 | 3.53 | 72 | 1006.8 |
| 20260506175350 | 14 | 85 | 4.8 | 12.9 | 0.00 | 3.63 | 3.53 | 72 | 1006.8 |
| 20260506175251 | 14 | 81 | 4.8 | 12.9 | 0.00 | 3.63 | 3.53 | 72 | 1006.8 |
| 20260506175151 | 14 | 72 | 4.8 | 12.9 | 0.00 | 3.63 | 3.53 | 72 | 1006.7 |
| 20260506175049 | 14 | 63 | 4.8 | 12.9 | 0.00 | 3.63 | 3.53 | 72 | 1006.7 |
| 20260506174951 | 14 | 63 | 4.8 | 12.9 | 0.00 | 3.73 | 3.53 | 72 | 1006.7 |
| 20260506174851 | 14 | 62 | 4.8 | 12.9 | 0.00 | 3.73 | 3.53 | 72 | 1006.8 |
| 20260506174751 | 14 | 56 | 4.8 | 12.9 | 0.00 | 3.73 | 3.53 | 72 | 1006.7 |
| 20260506174652 | 14 | 50 | 4.8 | 12.9 | 0.00 | 3.73 | 3.53 | 72 | 1006.7 |
| 20260506174552 | 14 | 45 | 4.8 | 12.9 | 0.00 | 3.73 | 3.53 | 71 | 1006.6 |
| 20260506174449 | 14 | 37 | 4.8 | 12.9 | 0.00 | 3.73 | 3.53 | 71 | 1006.6 |
| 20260506174351 | 14 | 27 | 4.8 | 9.7 | 0.00 | 3.73 | 3.53 | 71 | 1006.6 |
| 20260506174251 | 14 | 22 | 4.8 | 9.7 | 0.00 | 3.73 | 3.53 | 72 | 1006.4 |
| 20260506174150 | 14 | 17 | 4.8 | 9.7 | 0.00 | 3.73 | 3.53 | 72 | 1006.4 |
| 20260506174052 | 14 | 15 | 4.8 | 9.7 | 0.00 | 3.73 | 3.53 | 73 | 1006.4 |
| 20260506173952 | 14 | 8 | 4.8 | 9.7 | 0.00 | 3.73 | 3.53 | 73 | 1006.3 |
| 20260506173851 | 14 | 357 | 4.8 | 9.7 | 0.00 | 3.73 | 3.53 | 73 | 1006.3 |
| 20260506173751 | 14 | 351 | 4.8 | 9.7 | 0.00 | 3.73 | 3.53 | 73 | 1006.2 |
| 20260506173651 | 14 | 343 | 4.8 | 11.3 | 0.00 | 3.73 | 3.53 | 73 | 1006.3 |
| 20260506173550 | 14 | 340 | 6.4 | 11.3 | 0.00 | 3.73 | 3.53 | 73 | 1006.2 |
| 20260506173450 | 14 | 336 | 6.4 | 11.3 | 0.00 | 3.73 | 3.53 | 73 | 1006.3 |
| 20260506173352 | 14 | 334 | 6.4 | 11.3 | 0.00 | 3.73 | 3.53 | 73 | 1006.3 |
| 20260506173249 | 14 | 332 | 6.4 | 11.3 | 0.00 | 3.73 | 3.53 | 73 | 1006.2 |
| 20260506173151 | 14 | 330 | 6.4 | 11.3 | 0.00 | 3.73 | 3.53 | 73 | 1006.3 |
| 20260506173051 | 14 | 328 | 6.4 | 11.3 | 0.00 | 3.73 | 3.53 | 73 | 1006.4 |
| 20260506172951 | 14 | 328 | 8.0 | 14.5 | 0.00 | 3.73 | 3.53 | 73 | 1006.3 |
| 20260506172851 | 14 | 329 | 8.0 | 14.5 | 0.00 | 3.73 | 3.53 | 73 | 1006.3 |
| 20260506172751 | 14 | 328 | 8.0 | 14.5 | 0.00 | 3.73 | 3.53 | 73 | 1006.3 |
| 20260506172650 | 14 | 328 | 8.0 | 14.5 | 0.00 | 3.73 | 3.53 | 73 | 1006.2 |
| 20260506172552 | 14 | 329 | 8.0 | 14.5 | 0.00 | 3.73 | 3.53 | 73 | 1006.3 |
| 20260506172452 | 14 | 331 | 8.0 | 14.5 | 0.00 | 3.73 | 3.53 | 74 | 1006.3 |
| 20260506172351 | 14 | 330 | 8.0 | 14.5 | 0.00 | 3.73 | 3.53 | 73 | 1006.3 |
| 20260506172252 | 14 | 329 | 8.0 | 14.5 | 0.00 | 3.73 | 3.53 | 74 | 1006.2 |
| 20260506172152 | 14 | 329 | 8.0 | 14.5 | 0.00 | 3.73 | 3.53 | 73 | 1006.3 |
| 20260506172051 | 14 | 328 | 8.0 | 14.5 | 0.00 | 3.73 | 3.53 | 73 | 1006.3 |
| 20260506171951 | 14 | 328 | 8.0 | 12.9 | 0.00 | 3.73 | 3.53 | 73 | 1006.4 |
| 20260506171852 | 14 | 328 | 8.0 | 12.9 | 0.00 | 3.73 | 3.53 | 73 | 1006.4 |
| 20260506171752 | 14 | 329 | 8.0 | 12.9 | 0.00 | 3.73 | 3.53 | 74 | 1006.4 |
| 20260506171652 | 14 | 329 | 6.4 | 12.9 | 0.00 | 3.73 | 3.53 | 75 | 1006.5 |
| 20260506171552 | 14 | 329 | 6.4 | 12.9 | 0.00 | 3.73 | 3.53 | 74 | 1006.4 |
| 20260506171450 | 14 | 328 | 6.4 | 12.9 | 0.00 | 3.73 | 3.53 | 73 | 1006.5 |
| 20260506171351 | 14 | 328 | 6.4 | 12.9 | 0.00 | 3.73 | 3.53 | 73 | 1006.5 |
| 20260506171251 | 14 | 330 | 4.8 | 12.9 | 0.00 | 3.73 | 3.53 | 73 | 1006.5 |
| 20260506171151 | 14 | 329 | 4.8 | 12.9 | 0.00 | 3.73 | 3.53 | 73 | 1006.6 |
| 20260506171051 | 14 | 332 | 3.2 | 12.9 | 0.00 | 3.73 | 3.53 | 73 | 1006.5 |
| 20260506170951 | 14 | 334 | 3.2 | 9.7 | 0.00 | 3.73 | 3.53 | 72 | 1006.5 |
| 20260506170850 | 14 | 335 | 3.2 | 9.7 | 0.00 | 3.73 | 3.53 | 72 | 1006.5 |
| 20260506170752 | 14 | 337 | 1.6 | 6.4 | 0.00 | 3.73 | 3.53 | 72 | 1006.4 |
| 20260506170652 | 14 | 341 | 1.6 | 6.4 | 0.00 | 3.73 | 3.53 | 72 | 1006.4 |
| 20260506170549 | 14 | 343 | 0.0 | 6.4 | 0.00 | 3.73 | 3.53 | 72 | 1006.4 |
| 20260506170451 | 14 | 352 | 0.0 | 4.8 | 0.00 | 3.73 | 3.53 | 72 | 1006.4 |
| 20260506170351 | 14 | 10 | 0.0 | 4.8 | 0.00 | 3.73 | 3.53 | 71 | 1006.4 |
| 20260506170251 | 14 | 111 | 0.0 | 3.2 | 0.00 | 3.73 | 3.53 | 72 | 1006.4 |
| 20260506170150 | 14 | 119 | 0.0 | 1.6 | 0.00 | 3.73 | 3.53 | 71 | 1006.4 |
| 20260506170050 | 14 | 125 | 0.0 | 1.6 | 0.00 | 3.73 | 3.53 | 71 | 1006.4 |
| 20260506165950 | 14 | 134 | 0.0 | 1.6 | 0.00 | 3.73 | 3.53 | 71 | 1006.3 |
| 20260506165851 | 14 | 142 | 0.0 | 1.6 | 0.00 | 3.73 | 3.53 | 71 | 1006.3 |
| 20260506165751 | 14 | 142 | 0.0 | 1.6 | 0.00 | 3.73 | 3.53 | 72 | 1006.3 |
| 20260506165651 | 14 | 143 | 0.0 | 1.6 | 0.00 | 3.73 | 3.53 | 72 | 1006.3 |
| 20260506165551 | 14 | 139 | 0.0 | 1.6 | 0.00 | 3.73 | 3.53 | 73 | 1006.2 |
| 20260506165451 | 14 | 147 | 0.0 | 1.6 | 0.00 | 3.73 | 3.53 | 73 | 1006.3 |
| 20260506165350 | 14 | 162 | 0.0 | 1.6 | 0.00 | 3.73 | 3.53 | 73 | 1006.2 |
| 20260506165251 | 14 | 277 | 0.0 | 1.6 | 0.00 | 3.73 | 3.53 | 74 | 1006.2 |
| 20260506165151 | 14 | 301 | 0.0 | 1.6 | 0.00 | 3.73 | 3.53 | 74 | 1006.2 |
| 20260506165051 | 14 | 310 | 0.0 | 1.6 | 0.00 | 3.73 | 3.53 | 73 | 1006.2 |
| 20260506164951 | 14 | 325 | 0.0 | 3.2 | 0.00 | 3.73 | 3.53 | 73 | 1006.1 |
| 20260506164850 | 14 | 332 | 0.0 | 3.2 | 0.00 | 3.73 | 3.53 | 72 | 1006.1 |
| 20260506164750 | 14 | 329 | 1.6 | 6.4 | 0.00 | 3.73 | 3.53 | 71 | 1006.0 |
| 20260506164652 | 14 | 333 | 1.6 | 6.4 | 0.00 | 3.73 | 3.53 | 71 | 1006.0 |
| 20260506164552 | 14 | 335 | 1.6 | 9.7 | 0.00 | 3.73 | 3.53 | 71 | 1006.0 |
| 20260506164449 | 14 | 335 | 3.2 | 9.7 | 0.00 | 3.73 | 3.53 | 70 | 1006.0 |
| 20260506164351 | 14 | 337 | 3.2 | 11.3 | 0.00 | 3.73 | 3.53 | 70 | 1006.0 |
| 20260506164251 | 14 | 336 | 4.8 | 11.3 | 0.00 | 3.73 | 3.53 | 70 | 1006.0 |
| 20260506164151 | 14 | 338 | 4.8 | 11.3 | 0.00 | 3.73 | 3.53 | 70 | 1006.0 |
| 20260506164051 | 14 | 338 | 4.8 | 11.3 | 0.00 | 3.73 | 3.53 | 70 | 1006.1 |
| 20260506163951 | 14 | 339 | 6.4 | 14.5 | 0.00 | 3.73 | 3.53 | 70 | 1006.2 |
| 20260506163850 | 14 | 344 | 6.4 | 14.5 | 0.00 | 3.73 | 3.53 | 70 | 1006.2 |
| 20260506163752 | 14 | 352 | 6.4 | 14.5 | 0.00 | 3.73 | 3.53 | 71 | 1006.2 |
| 20260506163652 | 14 | 4 | 6.4 | 14.5 | 0.00 | 3.73 | 3.53 | 70 | 1006.2 |
| 20260506163549 | 14 | 19 | 8.0 | 16.1 | 0.00 | 3.73 | 3.53 | 70 | 1006.1 |
| 20260506163451 | 14 | 37 | 8.0 | 16.1 | 0.00 | 3.73 | 3.53 | 70 | 1006.1 |
| 20260506163350 | 15 | 51 | 8.0 | 17.7 | 0.00 | 3.73 | 3.53 | 69 | 1006.2 |
| 20260506163250 | 15 | 56 | 8.0 | 20.9 | 0.00 | 3.73 | 3.53 | 68 | 1006.2 |
| 20260506163151 | 15 | 61 | 9.7 | 20.9 | 0.00 | 3.73 | 3.53 | 67 | 1006.1 |
| 20260506163051 | 15 | 64 | 9.7 | 20.9 | 0.00 | 3.73 | 3.53 | 67 | 1006.2 |
| 20260506162951 | 15 | 67 | 9.7 | 20.9 | 0.00 | 3.73 | 3.53 | 67 | 1006.2 |
| 20260506162852 | 15 | 67 | 9.7 | 20.9 | 0.00 | 3.73 | 3.53 | 66 | 1006.2 |
| 20260506162752 | 15 | 65 | 9.7 | 20.9 | 0.00 | 3.73 | 3.53 | 65 | 1006.2 |
| 20260506162650 | 15 | 62 | 9.7 | 20.9 | 0.00 | 3.73 | 3.53 | 65 | 1006.2 |
| 20260506162552 | 15 | 61 | 9.7 | 20.9 | 0.00 | 3.73 | 3.53 | 65 | 1006.0 |
| 20260506162452 | 15 | 57 | 9.7 | 20.9 | 0.00 | 3.73 | 3.53 | 65 | 1006.0 |
| 20260506162351 | 15 | 56 | 8.0 | 20.9 | 0.00 | 3.73 | 3.53 | 66 | 1005.9 |
| 20260506162252 | 15 | 63 | 8.0 | 17.7 | 0.00 | 3.73 | 3.53 | 66 | 1005.8 |
| 20260506162152 | 15 | 64 | 8.0 | 16.1 | 0.00 | 3.73 | 3.53 | 66 | 1005.8 |
| 20260506162050 | 15 | 63 | 8.0 | 16.1 | 0.00 | 3.73 | 3.53 | 66 | 1005.8 |
| 20260506161952 | 15 | 65 | 8.0 | 17.7 | 0.00 | 3.73 | 3.53 | 66 | 1005.8 |
| 20260506161851 | 15 | 68 | 9.7 | 17.7 | 0.00 | 3.73 | 3.53 | 66 | 1005.7 |
| 20260506161751 | 15 | 71 | 9.7 | 17.7 | 0.00 | 3.73 | 3.53 | 67 | 1005.7 |
| 20260506161652 | 15 | 73 | 9.7 | 19.3 | 0.00 | 3.73 | 3.53 | 67 | 1005.7 |
| 20260506161552 | 15 | 74 | 9.7 | 19.3 | 0.00 | 3.73 | 3.53 | 68 | 1005.7 |
| 20260506161450 | 14 | 75 | 9.7 | 19.3 | 0.00 | 3.73 | 3.53 | 68 | 1005.7 |
| 20260506161351 | 14 | 73 | 11.3 | 19.3 | 0.00 | 3.73 | 3.53 | 68 | 1005.6 |
| 20260506161251 | 14 | 71 | 11.3 | 19.3 | 0.00 | 3.73 | 3.53 | 67 | 1005.6 |
| 20260506161151 | 14 | 72 | 11.3 | 19.3 | 0.00 | 3.73 | 3.53 | 67 | 1005.6 |
| 20260506161051 | 14 | 75 | 11.3 | 19.3 | 0.00 | 3.73 | 3.53 | 67 | 1005.6 |
| 20260506160951 | 14 | 76 | 11.3 | 19.3 | 0.00 | 3.73 | 3.53 | 67 | 1005.6 |
| 20260506160850 | 14 | 75 | 11.3 | 19.3 | 0.00 | 3.73 | 3.53 | 67 | 1005.6 |
| 20260506160752 | 14 | 68 | 11.3 | 19.3 | 0.00 | 3.73 | 3.53 | 68 | 1005.7 |
| 20260506160651 | 14 | 65 | 8.0 | 9.7 | 0.00 | 3.73 | 3.53 | 69 | 1005.6 |
| 20260506160551 | 14 | 76 | 8.0 | 9.7 | 0.00 | 3.73 | 3.53 | 69 | 1005.7 |
| 20260506160451 | 14 | 81 | 6.4 | 9.7 | 0.00 | 3.73 | 3.53 | 69 | 1005.6 |
| 20260506160350 | 14 | 97 | 9.7 | 9.7 | 0.00 | 3.73 | 3.53 | 69 | 1005.6 |